BBC002 EGLL-VGSY

Flight info

Callsign BBC002
Flight time 10h 8m
Altitude 33000
Route DET L6 DVR UL9 KONAN UL607 KOK DCT REMBA DCT LIRSU DCT LALMI DCT ABTAL DCT RIDAR DCT GOMIG DCT GOTAR/N0477F350 DCT INVED DCT LUGEB DCT UDROS DCT ZUBRE UG67 SARPI DCT LAGAS M747 SULEL N449 DUKAN B449 INRAK/N0479F370 B449 DOLOS B475 NINOP A909 LEMOD N644 DI A466 SULOM M890 LKN A201 RAJ G463 DAC W1 SYT
Aircraft B77W/H-SDE1E2E3FGHIJ2J3J4J5M1RWXY/LB1D1

Departure

Time 2026-05-04 20:22
Airport London Heathrow Airport (EGLL)

Arrival

Time 2026-05-05 06:30
Airport Osmany International Airport (VGSY)
Time Latitude Longitude Altitude Speed Heading
2026-05-04 19:36 51.46253 -0.44367 91 ft 0 kts 290°
2026-05-04 19:53 51.46247 -0.44343 94 ft 3 kts 290°
2026-05-04 19:53 51.46241 -0.44315 95 ft 3 kts 290°
2026-05-04 19:53 51.46234 -0.44285 91 ft 2 kts 290°
2026-05-04 19:54 51.46234 -0.44282 91 ft 0 kts 290°
2026-05-04 20:08 51.46234 -0.44283 91 ft 1 kts 290°
2026-05-04 20:08 51.46229 -0.44267 94 ft 0 kts 338°
2026-05-04 20:08 51.46226 -0.44264 95 ft 2 kts 351°
2026-05-04 20:08 51.46223 -0.44262 95 ft 0 kts
2026-05-04 20:09 51.46224 -0.44262 95 ft 3 kts
2026-05-04 20:09 51.46266 -0.44237 93 ft 8 kts 17°
2026-05-04 20:10 51.46313 -0.44279 95 ft 10 kts 294°
2026-05-04 20:10 51.46324 -0.44413 91 ft 14 kts 272°
2026-05-04 20:10 51.46326 -0.44565 94 ft 14 kts 268°
2026-05-04 20:10 51.46319 -0.44718 94 ft 14 kts 268°
2026-05-04 20:11 51.46317 -0.44872 94 ft 14 kts 269°
2026-05-04 20:11 51.46316 -0.45026 94 ft 14 kts 269°
2026-05-04 20:11 51.46316 -0.45181 94 ft 14 kts 269°
2026-05-04 20:11 51.46315 -0.45336 94 ft 14 kts 270°
2026-05-04 20:12 51.46315 -0.45490 96 ft 14 kts 270°
2026-05-04 20:12 51.46320 -0.45645 96 ft 14 kts 275°
2026-05-04 20:12 51.46323 -0.45799 92 ft 14 kts 270°
2026-05-04 20:12 51.46323 -0.45954 93 ft 14 kts 270°
2026-05-04 20:13 51.46322 -0.46101 93 ft 13 kts 269°
2026-05-04 20:13 51.46321 -0.46247 94 ft 13 kts 270°
2026-05-04 20:13 51.46321 -0.46382 93 ft 0 kts 270°
2026-05-04 20:14 51.46321 -0.46415 93 ft 9 kts 270°
2026-05-04 20:15 51.46322 -0.46594 93 ft 22 kts 270°
2026-05-04 20:15 51.46323 -0.46841 91 ft 22 kts 270°
2026-05-04 20:15 51.46321 -0.47083 94 ft 21 kts 269°
2026-05-04 20:15 51.46324 -0.47313 94 ft 20 kts 279°
2026-05-04 20:16 51.46338 -0.47537 95 ft 20 kts 270°
2026-05-04 20:16 51.46295 -0.47750 95 ft 20 kts 241°
2026-05-04 20:16 51.46251 -0.47962 94 ft 20 kts 266°
2026-05-04 20:16 51.46250 -0.48188 90 ft 20 kts 270°
2026-05-04 20:17 51.46249 -0.48414 89 ft 20 kts 269°
2026-05-04 20:17 51.46265 -0.48635 95 ft 19 kts 296°
2026-05-04 20:17 51.46290 -0.48687 95 ft 0 kts 315°
2026-05-04 20:21 51.46294 -0.48693 93 ft 5 kts 319°
2026-05-04 20:21 51.46374 -0.48747 95 ft 17 kts 351°
2026-05-04 20:21 51.46478 -0.48505 93 ft 23 kts 89°
2026-05-04 20:22 51.46484 -0.47701 94 ft 121 kts 89°
2026-05-04 20:22 51.46500 -0.45851 115 ft 209 kts 88°
2026-05-04 20:22 51.46464 -0.43530 1362 ft 204 kts 91°
2026-05-04 20:22 51.46256 -0.41162 2518 ft 223 kts 102°
2026-05-04 20:23 51.45611 -0.38877 3095 ft 237 kts 129°
2026-05-04 20:23 51.44332 -0.37078 3626 ft 247 kts 134°
2026-05-04 20:23 51.43521 -0.34684 4177 ft 250 kts 99°
2026-05-04 20:23 51.43225 -0.31912 4731 ft 260 kts 101°
2026-05-04 20:24 51.42760 -0.29073 5393 ft 267 kts 106°
2026-05-04 20:24 51.42313 -0.26172 5894 ft 269 kts 100°
2026-05-04 20:24 51.41977 -0.23143 6000 ft 273 kts 100°
2026-05-04 20:24 51.41627 -0.20233 6012 ft 267 kts 101°
2026-05-04 20:25 51.41247 -0.17310 6040 ft 272 kts 102°
2026-05-04 20:25 51.40849 -0.14326 6044 ft 277 kts 102°
2026-05-04 20:25 51.40436 -0.11296 6032 ft 279 kts 102°
2026-05-04 20:25 51.40019 -0.08270 6027 ft 277 kts 102°
2026-05-04 20:26 51.39606 -0.05276 6025 ft 274 kts 102°
2026-05-04 20:26 51.39194 -0.02304 6018 ft 273 kts 102°
2026-05-04 20:26 51.38783 0.00662 6024 ft 272 kts 102°
2026-05-04 20:26 51.38372 0.03609 6013 ft 271 kts 102°
2026-05-04 20:27 51.37964 0.06528 6033 ft 272 kts 102°
2026-05-04 20:27 51.37543 0.09542 6036 ft 272 kts 102°
2026-05-04 20:27 51.37129 0.12500 6036 ft 273 kts 102°
2026-05-04 20:27 51.36709 0.15484 6042 ft 276 kts 102°
2026-05-04 20:28 51.36287 0.18487 6041 ft 279 kts 102°
2026-05-04 20:28 51.35857 0.21531 6029 ft 278 kts 102°
2026-05-04 20:28 51.35433 0.24533 6011 ft 277 kts 102°
2026-05-04 20:28 51.35011 0.27507 6021 ft 276 kts 102°
2026-05-04 20:29 51.34584 0.30521 6018 ft 275 kts 102°
2026-05-04 20:29 51.34162 0.33491 6005 ft 274 kts 102°
2026-05-04 20:29 51.33738 0.36477 5992 ft 274 kts 102°
2026-05-04 20:29 51.33315 0.39448 5990 ft 273 kts 102°
2026-05-04 20:30 51.32891 0.42412 5999 ft 273 kts 102°
2026-05-04 20:30 51.32467 0.45370 6007 ft 273 kts 102°
2026-05-04 20:30 51.32046 0.48300 6011 ft 274 kts 102°
2026-05-04 20:30 51.31619 0.51268 6001 ft 275 kts 102°
2026-05-04 20:31 51.31187 0.54264 5998 ft 275 kts 102°
2026-05-04 20:31 51.30754 0.57252 5998 ft 276 kts 102°
2026-05-04 20:31 51.30320 0.60214 6001 ft 276 kts 103°
2026-05-04 20:31 51.29799 0.63249 6009 ft 277 kts 105°
2026-05-04 20:32 51.29255 0.66201 6006 ft 277 kts 105°
2026-05-04 20:32 51.28705 0.69163 6008 ft 277 kts 105°
2026-05-04 20:32 51.28164 0.72079 5995 ft 277 kts 105°
2026-05-04 20:32 51.27613 0.75057 6003 ft 277 kts 105°
2026-05-04 20:33 51.27069 0.78005 6002 ft 276 kts 105°
2026-05-04 20:33 51.26527 0.80946 6003 ft 276 kts 105°
2026-05-04 20:33 51.25983 0.83901 6009 ft 276 kts 105°
2026-05-04 20:33 51.25443 0.86835 6048 ft 275 kts 105°
2026-05-04 20:34 51.24906 0.89748 6626 ft 277 kts 105°
2026-05-04 20:34 51.24363 0.92692 7421 ft 280 kts 105°
2026-05-04 20:34 51.23803 0.95727 8219 ft 283 kts 105°
2026-05-04 20:34 51.23238 0.98784 9030 ft 285 kts 106°
2026-05-04 20:35 51.22681 1.01788 9831 ft 288 kts 106°
2026-05-04 20:35 51.22103 1.04901 10502 ft 294 kts 106°
2026-05-04 20:35 51.21497 1.08160 10738 ft 318 kts 106°
2026-05-04 20:35 51.20840 1.11685 10944 ft 342 kts 106°
2026-05-04 20:36 51.20141 1.15436 11182 ft 364 kts 106°
2026-05-04 20:36 51.19636 1.18138 11600 ft 371 kts 106°
2026-05-04 20:36 51.18898 1.22083 12346 ft 378 kts 106°
2026-05-04 20:36 51.18141 1.26121 13131 ft 383 kts 107°
2026-05-04 20:37 51.17376 1.30189 14029 ft 384 kts 107°
2026-05-04 20:37 51.16630 1.34309 14782 ft 389 kts 104°
2026-05-04 20:37 51.16122 1.38611 15443 ft 395 kts 97°
2026-05-04 20:37 51.15897 1.42972 16160 ft 400 kts 94°
2026-05-04 20:38 51.15703 1.47398 16901 ft 404 kts 94°
2026-05-04 20:38 51.15503 1.51937 17622 ft 409 kts 95°
2026-05-04 20:38 51.15295 1.56475 18326 ft 414 kts 95°
2026-05-04 20:38 51.15077 1.61082 18934 ft 418 kts 95°
2026-05-04 20:39 51.14850 1.65739 19552 ft 422 kts 95°
2026-05-04 20:39 51.14619 1.70382 20153 ft 427 kts 95°
2026-05-04 20:39 51.14382 1.75098 20741 ft 431 kts 95°
2026-05-04 20:39 51.14158 1.79522 21300 ft 435 kts 95°
2026-05-04 20:40 51.13890 1.84767 21932 ft 440 kts 96°
2026-05-04 20:40 51.13644 1.89551 22476 ft 444 kts 95°
2026-05-04 20:40 51.13390 1.94466 23057 ft 448 kts 96°
2026-05-04 20:40 51.13128 1.99465 23613 ft 452 kts 96°
2026-05-04 20:41 51.12865 2.04444 24050 ft 457 kts 96°
2026-05-04 20:41 51.12597 2.09463 24537 ft 459 kts 96°
2026-05-04 20:41 51.12322 2.14602 25028 ft 462 kts 96°
2026-05-04 20:41 51.12047 2.19700 25528 ft 464 kts 96°
2026-05-04 20:42 51.11769 2.24824 25975 ft 467 kts 96°
2026-05-04 20:42 51.11486 2.30000 26413 ft 470 kts 96°
2026-05-04 20:42 51.11198 2.35225 26856 ft 473 kts 96°
2026-05-04 20:42 51.10909 2.40422 27300 ft 475 kts 96°
2026-05-04 20:43 51.10614 2.45683 27715 ft 477 kts 97°
2026-05-04 20:43 51.10317 2.50953 28164 ft 479 kts 97°
2026-05-04 20:43 51.10016 2.56255 28573 ft 481 kts 97°
2026-05-04 20:43 51.09813 2.59784 28841 ft 482 kts 97°
2026-05-04 20:44 51.09209 2.66887 29304 ft 484 kts 103°
2026-05-04 20:44 51.08376 2.72028 29648 ft 484 kts 108°
2026-05-04 20:44 51.07424 2.77153 30104 ft 483 kts 108°
2026-05-04 20:44 51.06770 2.80627 30400 ft 482 kts 108°
2026-05-04 20:45 51.06078 2.84308 30685 ft 481 kts 108°
2026-05-04 20:45 51.05125 2.89399 31023 ft 482 kts 108°
2026-05-04 20:45 51.04366 2.93482 31267 ft 482 kts 108°
2026-05-04 20:46 51.04337 2.93637 31279 ft 482 kts 108°
2026-05-04 20:46 51.03385 2.98786 31600 ft 483 kts 108°
2026-05-04 20:46 51.03191 2.99840 31671 ft 483 kts 108°
2026-05-04 20:47 51.02761 3.02171 31811 ft 483 kts 108°
2026-05-04 20:47 51.01805 3.07369 32144 ft 483 kts 108°
2026-05-04 20:48 51.00946 3.12029 32428 ft 483 kts 108°
2026-05-04 20:48 50.99999 3.17159 32710 ft 483 kts 108°
2026-05-04 20:48 50.99048 3.22295 32914 ft 486 kts 108°
2026-05-04 20:48 50.98089 3.27451 32950 ft 488 kts 108°
2026-05-04 20:49 50.96177 3.37696 32960 ft 484 kts 108°
2026-05-04 20:49 50.94253 3.47943 32960 ft 482 kts 108°
2026-05-04 20:50 50.92329 3.58131 32971 ft 483 kts 109°
2026-05-04 20:50 50.90393 3.68328 32963 ft 483 kts 109°
2026-05-04 20:51 50.88445 3.78530 32970 ft 484 kts 109°
2026-05-04 20:51 50.86485 3.88744 32973 ft 485 kts 109°
2026-05-04 20:52 50.84513 3.98968 32970 ft 486 kts 109°
2026-05-04 20:52 50.82534 4.09168 32964 ft 486 kts 110°
2026-05-04 20:53 50.80517 4.19512 32964 ft 486 kts 110°
2026-05-04 20:53 50.78638 4.29097 32964 ft 486 kts 110°
2026-05-04 20:54 50.77356 4.35606 32980 ft 486 kts 110°
2026-05-04 20:54 50.75383 4.45586 32952 ft 486 kts 110°
2026-05-04 20:55 50.73365 4.55750 32954 ft 486 kts 111°
2026-05-04 20:55 50.71333 4.65923 32968 ft 485 kts 111°
2026-05-04 20:56 50.69296 4.76072 32965 ft 485 kts 111°
2026-05-04 20:56 50.67247 4.86233 32953 ft 485 kts 111°
2026-05-04 20:57 50.64883 4.96136 32958 ft 480 kts 119°
2026-05-04 20:57 50.62005 5.05581 32965 ft 480 kts 120°
2026-05-04 20:58 50.59102 5.15038 32960 ft 481 kts 120°
2026-05-04 20:58 50.56207 5.24550 32965 ft 481 kts 120°
2026-05-04 20:59 50.53338 5.33996 32962 ft 482 kts 120°
2026-05-04 20:59 50.50441 5.43509 32966 ft 481 kts 120°
2026-05-04 21:00 50.47554 5.52948 32963 ft 481 kts 120°
2026-05-04 21:00 50.44646 5.62412 32959 ft 481 kts 121°
2026-05-04 21:01 50.41728 5.71870 32964 ft 480 kts 121°
2026-05-04 21:01 50.38808 5.81303 32957 ft 480 kts 121°
2026-05-04 21:02 50.35905 5.90645 32963 ft 480 kts 121°
2026-05-04 21:02 50.33938 5.96951 32950 ft 480 kts 121°
2026-05-04 21:03 50.32682 6.00970 32955 ft 479 kts 121°
2026-05-04 21:03 50.31354 6.05213 32948 ft 479 kts 121°
2026-05-04 21:04 50.29709 6.10455 32964 ft 479 kts 121°
2026-05-04 21:04 50.28851 6.13185 32962 ft 479 kts 121°
2026-05-04 21:05 50.26804 6.19690 32959 ft 479 kts 121°
2026-05-04 21:05 50.24523 6.26925 32951 ft 479 kts 121°
2026-05-04 21:06 50.22035 6.34793 32956 ft 480 kts 121°
2026-05-04 21:06 50.20446 6.39804 32951 ft 480 kts 121°
2026-05-04 21:07 50.19949 6.41369 32951 ft 480 kts 121°
2026-05-04 21:07 50.18179 6.46916 32953 ft 480 kts 122°
2026-05-04 21:08 50.17840 6.47956 32955 ft 479 kts 122°
2026-05-04 21:08 50.16376 6.52350 32957 ft 479 kts 123°
2026-05-04 21:09 50.14833 6.56885 32961 ft 479 kts 123°
2026-05-04 21:09 50.14099 6.59028 32962 ft 479 kts 123°
2026-05-04 21:10 50.12949 6.62381 32967 ft 479 kts 123°
2026-05-04 21:10 50.12130 6.64768 32994 ft 479 kts 123°
2026-05-04 21:11 50.10853 6.68492 32954 ft 480 kts 123°
2026-05-04 21:11 50.09144 6.73484 32972 ft 480 kts 123°
2026-05-04 21:12 50.07729 6.77626 32987 ft 480 kts 123°
2026-05-04 21:12 50.04582 6.86836 32974 ft 480 kts 123°
2026-05-04 21:13 50.01458 6.95954 32981 ft 480 kts 123°
2026-05-04 21:13 49.98281 7.05185 32991 ft 480 kts 123°
2026-05-04 21:14 49.95136 7.14288 32995 ft 480 kts 123°
2026-05-04 21:14 49.91950 7.23476 32989 ft 479 kts 123°
2026-05-04 21:15 49.88757 7.32653 32998 ft 479 kts 123°
2026-05-04 21:15 49.85580 7.41749 32992 ft 479 kts 123°
2026-05-04 21:16 49.82421 7.50762 32988 ft 479 kts 123°
2026-05-04 21:16 49.79222 7.59858 32980 ft 479 kts 123°
2026-05-04 21:17 49.76027 7.68910 32965 ft 479 kts 123°
2026-05-04 21:17 49.72826 7.77947 32972 ft 479 kts 123°
2026-05-04 21:18 49.69611 7.86991 32969 ft 479 kts 123°
2026-05-04 21:18 49.66396 7.96003 32963 ft 479 kts 124°
2026-05-04 21:19 49.63184 8.04978 32970 ft 480 kts 124°
2026-05-04 21:19 49.59957 8.13962 32971 ft 480 kts 124°
2026-05-04 21:20 49.56714 8.22961 32969 ft 480 kts 124°
2026-05-04 21:20 49.53462 8.31951 32963 ft 480 kts 124°
2026-05-04 21:21 49.50222 8.40880 32964 ft 479 kts 124°
2026-05-04 21:21 49.46975 8.49798 32967 ft 478 kts 124°
2026-05-04 21:22 49.43719 8.58709 32966 ft 478 kts 124°
2026-05-04 21:22 49.40439 8.67655 32965 ft 477 kts 124°
2026-05-04 21:23 49.38903 8.71834 32972 ft 477 kts 124°
2026-05-04 21:23 49.38528 8.72854 32972 ft 477 kts 124°
2026-05-04 21:24 49.36145 8.79326 32966 ft 477 kts 124°
2026-05-04 21:24 49.32849 8.88188 32966 ft 477 kts 124°
2026-05-04 21:25 49.29525 8.96953 32975 ft 477 kts 124°
2026-05-04 21:25 49.26169 9.05768 32995 ft 479 kts 124°
2026-05-04 21:26 49.24510 9.10122 33241 ft 479 kts 124°
2026-05-04 21:26 49.22823 9.14550 33633 ft 478 kts 124°
2026-05-04 21:26 49.21140 9.18961 33984 ft 476 kts 124°
2026-05-04 21:26 49.19481 9.23306 34267 ft 475 kts 124°
2026-05-04 21:27 49.17807 9.27680 34516 ft 475 kts 124°
2026-05-04 21:27 49.16136 9.32037 34756 ft 476 kts 124°
2026-05-04 21:27 49.14475 9.36360 34908 ft 477 kts 124°
2026-05-04 21:27 49.12777 9.40773 34942 ft 479 kts 124°
2026-05-04 21:28 49.09410 9.49504 34980 ft 476 kts 124°
2026-05-04 21:28 49.06067 9.58148 34984 ft 474 kts 124°
2026-05-04 21:29 49.02696 9.66831 35006 ft 473 kts 124°
2026-05-04 21:29 48.99333 9.75465 34985 ft 473 kts 124°
2026-05-04 21:30 48.95966 9.84080 34983 ft 474 kts 124°
2026-05-04 21:30 48.92591 9.92690 34993 ft 475 kts 124°
2026-05-04 21:31 48.87491 10.05656 34990 ft 477 kts 124°
2026-05-04 21:32 48.84084 10.14336 34995 ft 478 kts 123°
2026-05-04 21:32 48.80749 10.23124 34991 ft 479 kts 123°
2026-05-04 21:33 48.77441 10.31867 34991 ft 479 kts 123°
2026-05-04 21:33 48.74098 10.40635 34995 ft 479 kts 123°
2026-05-04 21:34 48.73917 10.41108 34991 ft 479 kts 123°
2026-05-04 21:34 48.70567 10.49842 34993 ft 478 kts 123°
2026-05-04 21:35 48.67228 10.58516 34997 ft 477 kts 123°
2026-05-04 21:35 48.63887 10.67172 34983 ft 476 kts 124°
2026-05-04 21:36 48.60546 10.75802 34979 ft 475 kts 124°
2026-05-04 21:36 48.57670 10.84787 34967 ft 480 kts 112°
2026-05-04 21:37 48.55520 10.94360 34973 ft 480 kts 111°
2026-05-04 21:37 48.53391 11.03878 34971 ft 481 kts 112°
2026-05-04 21:38 48.51217 11.13409 34961 ft 481 kts 112°
2026-05-04 21:38 48.49053 11.22774 34964 ft 481 kts 112°
2026-05-04 21:39 48.46845 11.32277 34958 ft 481 kts 112°
2026-05-04 21:39 48.44632 11.41765 34951 ft 481 kts 112°
2026-05-04 21:40 48.42406 11.51268 34959 ft 480 kts 112°
2026-05-04 21:40 48.40181 11.60727 34960 ft 480 kts 112°
2026-05-04 21:41 48.37950 11.70174 34964 ft 479 kts 112°
2026-05-04 21:41 48.35714 11.79598 34967 ft 479 kts 112°
2026-05-04 21:42 48.33454 11.89080 34968 ft 479 kts 112°
2026-05-04 21:42 48.31210 11.98459 34963 ft 480 kts 112°
2026-05-04 21:43 48.28935 12.07925 34950 ft 480 kts 112°
2026-05-04 21:43 48.26648 12.17400 34940 ft 481 kts 112°
2026-05-04 21:44 48.24744 12.25256 34927 ft 482 kts 112°
2026-05-04 21:44 48.22438 12.34735 34913 ft 482 kts 112°
2026-05-04 21:45 48.20143 12.44132 34918 ft 483 kts 112°
2026-05-04 21:45 48.17811 12.53638 34909 ft 483 kts 112°
2026-05-04 21:46 48.15116 12.64582 34911 ft 483 kts 112°
2026-05-04 21:46 48.13067 12.72435 34911 ft 481 kts 116°
2026-05-04 21:47 48.10321 12.81531 34915 ft 481 kts 117°
2026-05-04 21:47 48.07523 12.90628 34924 ft 481 kts 117°
2026-05-04 21:48 48.04724 12.99762 34931 ft 481 kts 117°
2026-05-04 21:48 48.01953 13.08825 34931 ft 482 kts 117°
2026-05-04 21:49 47.99139 13.18010 34930 ft 482 kts 117°
2026-05-04 21:49 47.96349 13.27084 34933 ft 482 kts 117°
2026-05-04 21:50 47.93536 13.36197 34933 ft 482 kts 117°
2026-05-04 21:50 47.90743 13.45209 34939 ft 482 kts 117°
2026-05-04 21:51 47.87920 13.54284 34942 ft 482 kts 117°
2026-05-04 21:51 47.85090 13.63350 34944 ft 482 kts 117°
2026-05-04 21:52 47.82255 13.72400 34949 ft 483 kts 117°
2026-05-04 21:52 47.80798 13.77038 34958 ft 482 kts 117°
2026-05-04 21:53 47.78720 13.83638 34961 ft 483 kts 117°
2026-05-04 21:53 47.75853 13.92718 34965 ft 484 kts 117°
2026-05-04 21:54 47.72987 14.01761 34968 ft 484 kts 117°
2026-05-04 21:54 47.70119 14.10778 34993 ft 485 kts 117°
2026-05-04 21:55 47.67220 14.19859 34980 ft 485 kts 117°
2026-05-04 21:55 47.64334 14.28870 34978 ft 485 kts 117°
2026-05-04 21:56 47.61416 14.37945 34984 ft 485 kts 117°
2026-05-04 21:56 47.58517 14.46934 34986 ft 485 kts 117°
2026-05-04 21:57 47.55601 14.55938 35011 ft 485 kts 117°
2026-05-04 21:57 47.52670 14.64960 35014 ft 485 kts 117°
2026-05-04 21:58 47.49755 14.73899 35020 ft 485 kts 117°
2026-05-04 21:58 47.46808 14.82905 35020 ft 484 kts 117°
2026-05-04 21:59 47.43852 14.91909 35018 ft 484 kts 117°
2026-05-04 21:59 47.40929 15.00781 35020 ft 483 kts 117°
2026-05-04 22:00 47.37975 15.09714 35017 ft 483 kts 117°
2026-05-04 22:00 47.35019 15.18624 35012 ft 483 kts 117°
2026-05-04 22:01 47.32067 15.27490 35002 ft 483 kts 117°
2026-05-04 22:01 47.29096 15.36381 35002 ft 483 kts 117°
2026-05-04 22:02 47.26125 15.45246 34991 ft 483 kts 118°
2026-05-04 22:02 47.23146 15.54103 34993 ft 482 kts 118°
2026-05-04 22:03 47.20177 15.62899 34993 ft 482 kts 118°
2026-05-04 22:03 47.17184 15.71739 34988 ft 482 kts 118°
2026-05-04 22:04 47.14186 15.80562 34996 ft 483 kts 118°
2026-05-04 22:04 47.11172 15.89402 34994 ft 483 kts 118°
2026-05-04 22:05 47.08168 15.98182 34987 ft 484 kts 118°
2026-05-04 22:05 47.05154 16.06968 34990 ft 484 kts 118°
2026-05-04 22:06 47.02120 16.15782 34990 ft 484 kts 118°
2026-05-04 22:06 46.99358 16.24794 34989 ft 485 kts 109°
2026-05-04 22:07 46.97572 16.34326 34993 ft 485 kts 105°
2026-05-04 22:07 46.95888 16.43897 34988 ft 485 kts 105°
2026-05-04 22:08 46.94164 16.53488 34996 ft 485 kts 105°
2026-05-04 22:08 46.92425 16.62986 34996 ft 485 kts 105°
2026-05-04 22:09 46.90656 16.72558 34997 ft 485 kts 105°
2026-05-04 22:09 46.88901 16.82014 35002 ft 485 kts 105°
2026-05-04 22:10 46.87125 16.91535 35011 ft 485 kts 105°
2026-05-04 22:10 46.85341 17.01058 35011 ft 485 kts 105°
2026-05-04 22:11 46.83551 17.10561 35019 ft 485 kts 105°
2026-05-04 22:11 46.81760 17.20023 35019 ft 485 kts 105°
2026-05-04 22:12 46.79947 17.29549 35021 ft 485 kts 105°
2026-05-04 22:12 46.78141 17.38996 35019 ft 485 kts 105°
2026-05-04 22:13 46.76324 17.48454 35020 ft 486 kts 105°
2026-05-04 22:13 46.74483 17.57985 35022 ft 486 kts 105°
2026-05-04 22:14 46.72654 17.67412 35021 ft 486 kts 105°
2026-05-04 22:14 46.70802 17.76905 35028 ft 486 kts 105°
2026-05-04 22:15 46.68939 17.86410 35026 ft 486 kts 105°
2026-05-04 22:15 46.67082 17.95840 35032 ft 486 kts 104°
2026-05-04 22:16 46.65211 18.05296 35032 ft 486 kts 105°
2026-05-04 22:16 46.63325 18.14777 35037 ft 486 kts 104°
2026-05-04 22:17 46.61446 18.24182 35040 ft 486 kts 104°
2026-05-04 22:17 46.59543 18.33658 35047 ft 486 kts 104°
2026-05-04 22:18 46.57650 18.43041 35038 ft 486 kts 104°
2026-05-04 22:18 46.55738 18.52477 35043 ft 486 kts 104°
2026-05-04 22:19 46.53822 18.61882 35052 ft 486 kts 104°
2026-05-04 22:19 46.51894 18.71301 35047 ft 486 kts 104°
2026-05-04 22:20 46.49965 18.80686 35055 ft 486 kts 104°
2026-05-04 22:20 46.48016 18.90119 35062 ft 486 kts 104°
2026-05-04 22:21 46.46072 18.99485 35067 ft 486 kts 105°
2026-05-04 22:21 46.44124 19.08827 35073 ft 486 kts 105°
2026-05-04 22:22 46.42163 19.18192 35065 ft 486 kts 105°
2026-05-04 22:22 46.40187 19.27581 35071 ft 486 kts 105°
2026-05-04 22:23 46.38215 19.36907 35071 ft 486 kts 105°
2026-05-04 22:23 46.36220 19.46301 35073 ft 486 kts 105°
2026-05-04 22:24 46.34236 19.55600 35072 ft 485 kts 105°
2026-05-04 22:24 46.32237 19.64932 35075 ft 485 kts 105°
2026-05-04 22:25 46.30228 19.74262 35076 ft 485 kts 105°
2026-05-04 22:25 46.28216 19.83566 35077 ft 485 kts 105°
2026-05-04 22:26 46.26205 19.92823 35077 ft 484 kts 105°
2026-05-04 22:26 46.24180 20.02107 35081 ft 484 kts 105°
2026-05-04 22:27 46.22147 20.11386 35079 ft 484 kts 105°
2026-05-04 22:27 46.20112 20.20629 35074 ft 483 kts 105°
2026-05-04 22:28 46.18067 20.29886 35075 ft 483 kts 105°
2026-05-04 22:28 46.16016 20.39130 35068 ft 483 kts 106°
2026-05-04 22:29 46.13840 20.48249 35076 ft 485 kts 108°
2026-05-04 22:29 46.11481 20.57369 35085 ft 487 kts 109°
2026-05-04 22:30 46.09107 20.66513 35083 ft 488 kts 108°
2026-05-04 22:30 46.06748 20.75681 35081 ft 489 kts 108°
2026-05-04 22:31 46.04388 20.84878 35082 ft 488 kts 108°
2026-05-04 22:31 46.02025 20.94057 35082 ft 488 kts 108°
2026-05-04 22:32 45.99671 21.03165 35077 ft 487 kts 108°
2026-05-04 22:32 45.97302 21.12290 35080 ft 486 kts 108°
2026-05-04 22:33 45.94945 21.21332 35079 ft 486 kts 108°
2026-05-04 22:33 45.92566 21.30421 35076 ft 485 kts 108°
2026-05-04 22:34 45.90181 21.39502 35080 ft 485 kts 108°
2026-05-04 22:34 45.88589 21.45542 35079 ft 485 kts 108°
2026-05-04 22:35 45.86231 21.54459 35080 ft 485 kts 108°
2026-05-04 22:35 45.85561 21.56990 35082 ft 485 kts 108°
2026-05-04 22:36 45.84972 21.59206 35083 ft 485 kts 108°
2026-05-04 22:36 45.84546 21.60811 35087 ft 485 kts 108°
2026-05-04 22:37 45.84296 21.61749 35087 ft 485 kts 108°
2026-05-04 22:37 45.83808 21.63584 35092 ft 485 kts 108°
2026-05-04 22:38 45.83310 21.65452 35097 ft 485 kts 108°
2026-05-04 22:38 45.81411 21.72567 35092 ft 485 kts 108°
2026-05-04 22:39 45.80626 21.75509 35098 ft 485 kts 108°
2026-05-04 22:39 45.78208 21.84551 35100 ft 485 kts 108°
2026-05-04 22:40 45.75779 21.93593 35108 ft 486 kts 108°
2026-05-04 22:40 45.73360 22.02559 35110 ft 486 kts 108°
2026-05-04 22:41 45.70916 22.11583 35114 ft 486 kts 108°
2026-05-04 22:41 45.68466 22.20595 35118 ft 486 kts 108°
2026-05-04 22:42 45.66009 22.29599 35123 ft 486 kts 109°
2026-05-04 22:42 45.63542 22.38604 35129 ft 486 kts 109°
2026-05-04 22:43 45.61089 22.47528 35126 ft 485 kts 109°
2026-05-04 22:43 45.58608 22.56518 35128 ft 486 kts 109°
2026-05-04 22:44 45.56123 22.65489 35132 ft 485 kts 109°
2026-05-04 22:44 45.53630 22.74455 35138 ft 485 kts 109°
2026-05-04 22:45 45.51153 22.83333 35133 ft 485 kts 109°
2026-05-04 22:45 45.47391 22.96755 35136 ft 485 kts 109°
2026-05-04 22:46 45.44876 23.05685 35132 ft 485 kts 109°
2026-05-04 22:46 45.42357 23.14598 35132 ft 486 kts 109°
2026-05-04 22:47 45.39825 23.23522 35128 ft 486 kts 109°
2026-05-04 22:47 45.37718 23.30924 35124 ft 485 kts 110°
2026-05-04 22:48 45.34763 23.41270 35122 ft 485 kts 110°
2026-05-04 22:48 45.32206 23.50187 35122 ft 485 kts 110°
2026-05-04 22:49 45.30090 23.57543 35113 ft 485 kts 110°
2026-05-04 22:49 45.27532 23.66402 35114 ft 484 kts 110°
2026-05-04 22:50 45.24971 23.75245 35115 ft 485 kts 110°
2026-05-04 22:50 45.22404 23.84074 35106 ft 485 kts 110°
2026-05-04 22:51 45.19820 23.92931 35100 ft 485 kts 110°
2026-05-04 22:51 45.17225 24.01793 35099 ft 485 kts 110°
2026-05-04 22:52 45.14639 24.10593 35102 ft 485 kts 110°
2026-05-04 22:52 45.12033 24.19431 35091 ft 486 kts 110°
2026-05-04 22:53 45.09439 24.28197 35092 ft 485 kts 110°
2026-05-04 22:53 45.06824 24.37006 35089 ft 485 kts 110°
2026-05-04 22:54 45.04192 24.45836 35092 ft 486 kts 110°
2026-05-04 22:54 45.01564 24.54624 35097 ft 486 kts 111°
2026-05-04 22:55 44.98919 24.63439 35075 ft 486 kts 111°
2026-05-04 22:55 44.96283 24.72193 35073 ft 486 kts 111°
2026-05-04 22:56 44.93627 24.80983 35076 ft 486 kts 111°
2026-05-04 22:56 44.90959 24.89783 35079 ft 486 kts 111°
2026-05-04 22:57 44.88298 24.98529 35080 ft 486 kts 111°
2026-05-04 22:57 44.85620 25.07302 35072 ft 486 kts 111°
2026-05-04 22:58 44.82944 25.16035 35072 ft 486 kts 111°
2026-05-04 22:58 44.80253 25.24788 35066 ft 486 kts 111°
2026-05-04 22:59 44.77560 25.33520 35062 ft 486 kts 111°
2026-05-04 22:59 44.74869 25.42215 35054 ft 487 kts 112°
2026-05-04 23:00 44.72153 25.50960 35055 ft 487 kts 112°
2026-05-04 23:00 44.69423 25.59722 35052 ft 487 kts 112°
2026-05-04 23:01 44.66709 25.68401 35048 ft 487 kts 112°
2026-05-04 23:01 44.63985 25.77086 35048 ft 488 kts 112°
2026-05-04 23:02 44.61237 25.85816 35048 ft 489 kts 113°
2026-05-04 23:02 44.58477 25.94556 35047 ft 490 kts 113°
2026-05-04 23:03 44.55703 26.03307 35052 ft 491 kts 113°
2026-05-04 23:03 44.52932 26.12023 35047 ft 492 kts 114°
2026-05-04 23:04 44.50135 26.20791 35051 ft 492 kts 114°
2026-05-04 23:04 44.47333 26.29543 35053 ft 493 kts 114°
2026-05-04 23:05 44.44530 26.38271 35044 ft 493 kts 114°
2026-05-04 23:05 44.41715 26.47006 35042 ft 492 kts 114°
2026-05-04 23:06 44.38902 26.55708 35043 ft 492 kts 114°
2026-05-04 23:06 44.36077 26.64416 35042 ft 491 kts 114°
2026-05-04 23:07 44.33249 26.73107 35047 ft 490 kts 114°
2026-05-04 23:07 44.30420 26.81769 35049 ft 489 kts 114°
2026-05-04 23:08 44.27607 26.90356 35046 ft 489 kts 114°
2026-05-04 23:08 44.24767 26.98998 35042 ft 488 kts 114°
2026-05-04 23:09 44.21932 27.07594 35047 ft 487 kts 114°
2026-05-04 23:09 44.19108 27.16132 35043 ft 486 kts 114°
2026-05-04 23:10 44.16247 27.24752 35048 ft 486 kts 114°
2026-05-04 23:10 44.13406 27.33285 35045 ft 485 kts 114°
2026-05-04 23:11 44.10579 27.41751 35052 ft 485 kts 114°
2026-05-04 23:11 44.07732 27.50247 35053 ft 484 kts 114°
2026-05-04 23:12 44.04882 27.58728 35058 ft 484 kts 114°
2026-05-04 23:12 44.02038 27.67161 35051 ft 483 kts 114°
2026-05-04 23:13 43.99175 27.75627 35059 ft 483 kts 114°
2026-05-04 23:13 43.96317 27.84048 35058 ft 482 kts 114°
2026-05-04 23:14 43.93454 27.92460 35058 ft 481 kts 114°
2026-05-04 23:14 43.90589 28.00852 35059 ft 481 kts 114°
2026-05-04 23:15 43.87722 28.09224 35057 ft 480 kts 114°
2026-05-04 23:15 43.84870 28.17528 35057 ft 480 kts 114°
2026-05-04 23:16 43.81989 28.25890 35060 ft 479 kts 114°
2026-05-04 23:16 43.79099 28.34251 35057 ft 479 kts 114°
2026-05-04 23:17 43.76238 28.42511 35056 ft 479 kts 114°
2026-05-04 23:17 43.73303 28.50789 35058 ft 480 kts 117°
2026-05-04 23:18 43.69753 28.58661 35064 ft 482 kts 121°
2026-05-04 23:18 43.66102 28.66444 35058 ft 483 kts 121°
2026-05-04 23:19 43.62459 28.74251 35056 ft 484 kts 120°
2026-05-04 23:19 43.58824 28.82077 35057 ft 485 kts 120°
2026-05-04 23:20 43.55209 28.89860 35056 ft 485 kts 120°
2026-05-04 23:20 43.51559 28.97698 35058 ft 486 kts 120°
2026-05-04 23:21 43.47899 29.05531 35051 ft 486 kts 120°
2026-05-04 23:21 43.44228 29.13366 35049 ft 487 kts 120°
2026-05-04 23:22 43.40550 29.21195 35049 ft 487 kts 120°
2026-05-04 23:22 43.36870 29.29008 35051 ft 486 kts 120°
2026-05-04 23:23 43.33184 29.36812 35039 ft 486 kts 120°
2026-05-04 23:23 43.29517 29.44555 35037 ft 486 kts 120°
2026-05-04 23:24 43.25823 29.52336 35034 ft 486 kts 120°
2026-05-04 23:24 43.22127 29.60100 35039 ft 486 kts 120°
2026-05-04 23:25 43.18422 29.67863 35029 ft 486 kts 120°
2026-05-04 23:25 43.14744 29.75549 35020 ft 485 kts 120°
2026-05-04 23:26 43.11037 29.83275 35023 ft 485 kts 120°
2026-05-04 23:26 43.07330 29.90981 35016 ft 485 kts 120°
2026-05-04 23:27 43.03622 29.98669 35018 ft 484 kts 120°
2026-05-04 23:27 42.99908 30.06350 35010 ft 483 kts 120°
2026-05-04 23:28 42.96196 30.14007 35008 ft 483 kts 120°
2026-05-04 23:28 42.92508 30.21595 35003 ft 482 kts 120°
2026-05-04 23:29 42.88799 30.29208 34998 ft 481 kts 119°
2026-05-04 23:29 42.85094 30.36794 34994 ft 480 kts 119°
2026-05-04 23:30 42.81409 30.44320 34994 ft 480 kts 119°
2026-05-04 23:30 42.77702 30.51873 34991 ft 479 kts 119°
2026-05-04 23:31 42.74512 30.59753 34987 ft 470 kts 106°
2026-05-04 23:31 42.72820 30.68239 34988 ft 461 kts 94°
2026-05-04 23:32 42.71890 30.76873 34987 ft 461 kts 93°
2026-05-04 23:32 42.70972 30.85465 34982 ft 462 kts 94°
2026-05-04 23:33 42.70016 30.94096 34979 ft 462 kts 94°
2026-05-04 23:33 42.69034 31.02728 34974 ft 462 kts 94°
2026-05-04 23:34 42.68040 31.11353 34967 ft 461 kts 94°
2026-05-04 23:34 42.67210 31.18514 34968 ft 461 kts 94°
2026-05-04 23:35 42.66044 31.28525 34960 ft 461 kts 94°
2026-05-04 23:35 42.65205 31.35672 34962 ft 460 kts 94°
2026-05-04 23:36 42.64192 31.44263 34963 ft 460 kts 94°
2026-05-04 23:36 42.63173 31.52847 34959 ft 460 kts 94°
2026-05-04 23:37 42.62147 31.61422 34947 ft 460 kts 94°
2026-05-04 23:37 42.61115 31.70004 34948 ft 460 kts 94°
2026-05-04 23:38 42.60082 31.78534 34952 ft 461 kts 94°
2026-05-04 23:38 42.59035 31.87123 34950 ft 461 kts 94°
2026-05-04 23:39 42.57980 31.95718 34949 ft 462 kts 94°
2026-05-04 23:39 42.56920 32.04307 34949 ft 462 kts 94°
2026-05-04 23:40 42.55850 32.12910 34944 ft 462 kts 95°
2026-05-04 23:40 42.54774 32.21514 34944 ft 462 kts 95°
2026-05-04 23:41 42.53698 32.30066 34944 ft 462 kts 95°
2026-05-04 23:41 42.52608 32.38670 34938 ft 462 kts 95°
2026-05-04 23:42 42.51513 32.47264 34947 ft 462 kts 95°
2026-05-04 23:42 42.50413 32.55839 34949 ft 462 kts 95°
2026-05-04 23:43 42.49306 32.64419 34947 ft 462 kts 95°
2026-05-04 23:43 42.48194 32.72984 34942 ft 461 kts 95°
2026-05-04 23:44 42.47080 32.81511 34949 ft 461 kts 95°
2026-05-04 23:44 42.45957 32.90058 34942 ft 461 kts 95°
2026-05-04 23:45 42.44825 32.98628 34956 ft 461 kts 95°
2026-05-04 23:45 42.43688 33.07178 34952 ft 461 kts 95°
2026-05-04 23:46 42.42546 33.15714 34946 ft 461 kts 96°
2026-05-04 23:46 42.41397 33.24256 34948 ft 461 kts 96°
2026-05-04 23:47 42.40241 33.32801 34951 ft 461 kts 96°
2026-05-04 23:47 42.39079 33.41336 34953 ft 461 kts 96°
2026-05-04 23:48 42.37911 33.49870 34948 ft 461 kts 96°
2026-05-04 23:48 42.36737 33.58393 34949 ft 461 kts 96°
2026-05-04 23:49 42.35558 33.66896 34948 ft 460 kts 97°
2026-05-04 23:49 42.34382 33.75338 34949 ft 459 kts 97°
2026-05-04 23:50 42.33193 33.83825 34945 ft 459 kts 97°
2026-05-04 23:50 42.31999 33.92302 34951 ft 459 kts 97°
2026-05-04 23:51 42.30799 34.00776 34950 ft 459 kts 97°
2026-05-04 23:51 42.29590 34.09261 34949 ft 459 kts 97°
2026-05-04 23:52 42.28381 34.17701 34953 ft 460 kts 98°
2026-05-04 23:52 42.27159 34.26184 34953 ft 461 kts 98°
2026-05-04 23:53 42.25927 34.34694 34951 ft 461 kts 98°
2026-05-04 23:53 42.24688 34.43199 34953 ft 462 kts 98°
2026-05-04 23:54 42.23448 34.51665 34951 ft 463 kts 98°
2026-05-04 23:54 42.22184 34.60255 34953 ft 463 kts 99°
2026-05-04 23:55 42.20920 34.68790 34949 ft 464 kts 99°
2026-05-04 23:56 42.19017 34.81563 34950 ft 465 kts 99°
2026-05-04 23:56 42.17735 34.90106 34952 ft 465 kts 99°
2026-05-04 23:57 42.16444 34.98663 34953 ft 466 kts 99°
2026-05-04 23:57 42.15145 35.07228 34953 ft 467 kts 99°
2026-05-04 23:58 42.13837 35.15813 34952 ft 467 kts 99°
2026-05-04 23:58 42.12520 35.24401 34947 ft 468 kts 99°
2026-05-04 23:59 42.11195 35.33003 34948 ft 469 kts 100°
2026-05-04 23:59 42.09866 35.41584 34952 ft 471 kts 100°
2026-05-05 00:00 42.08522 35.50219 34953 ft 472 kts 100°
2026-05-05 00:00 42.07168 35.58870 34952 ft 473 kts 100°
2026-05-05 00:01 42.05801 35.67560 34949 ft 474 kts 101°
2026-05-05 00:01 42.04427 35.76244 34948 ft 475 kts 101°
2026-05-05 00:02 42.03042 35.84961 34948 ft 475 kts 101°
2026-05-05 00:02 42.01653 35.93650 34943 ft 475 kts 101°
2026-05-05 00:03 42.00266 36.02284 34941 ft 475 kts 101°
2026-05-05 00:03 41.98864 36.10973 34939 ft 475 kts 101°
2026-05-05 00:04 41.97460 36.19620 34940 ft 475 kts 102°
2026-05-05 00:04 41.96047 36.28289 34943 ft 475 kts 102°
2026-05-05 00:05 41.94626 36.36958 34941 ft 475 kts 102°
2026-05-05 00:05 41.93196 36.45637 34942 ft 475 kts 102°
2026-05-05 00:06 41.91773 36.54233 34938 ft 475 kts 102°
2026-05-05 00:06 41.90334 36.62883 34937 ft 475 kts 102°
2026-05-05 00:07 41.88886 36.71542 34934 ft 475 kts 102°
2026-05-05 00:07 41.87432 36.80193 34941 ft 475 kts 102°
2026-05-05 00:08 41.85965 36.88877 34936 ft 476 kts 103°
2026-05-05 00:08 41.84503 36.97493 34935 ft 476 kts 103°
2026-05-05 00:09 41.83025 37.06161 34935 ft 477 kts 103°
2026-05-05 00:09 41.81538 37.14843 34938 ft 477 kts 103°
2026-05-05 00:10 41.80041 37.23533 34935 ft 478 kts 103°
2026-05-05 00:10 41.78539 37.32216 34936 ft 477 kts 103°
2026-05-05 00:11 41.77038 37.40847 34934 ft 477 kts 103°
2026-05-05 00:11 41.75524 37.49518 34937 ft 477 kts 103°
2026-05-05 00:12 41.74007 37.58158 34934 ft 477 kts 104°
2026-05-05 00:12 41.72491 37.66756 34934 ft 476 kts 104°
2026-05-05 00:13 41.70961 37.75389 34932 ft 476 kts 104°
2026-05-05 00:13 41.69425 37.84021 34936 ft 476 kts 104°
2026-05-05 00:14 41.67883 37.92640 34931 ft 476 kts 104°
2026-05-05 00:14 41.66335 38.01254 34932 ft 476 kts 104°
2026-05-05 00:15 41.64782 38.09861 34922 ft 477 kts 104°
2026-05-05 00:15 41.63228 38.18425 34922 ft 477 kts 104°
2026-05-05 00:16 41.61653 38.27076 34917 ft 478 kts 105°
2026-05-05 00:16 41.60069 38.35730 34923 ft 479 kts 105°
2026-05-05 00:17 41.58487 38.44330 34919 ft 480 kts 105°
2026-05-05 00:17 41.56888 38.52989 34915 ft 480 kts 105°
2026-05-05 00:18 41.55282 38.61646 34915 ft 480 kts 105°
2026-05-05 00:18 41.53668 38.70308 34923 ft 481 kts 105°
2026-05-05 00:19 41.52321 38.77502 34923 ft 481 kts 105°
2026-05-05 00:19 41.50691 38.86178 34925 ft 482 kts 105°
2026-05-05 00:20 41.48785 38.96271 34928 ft 482 kts 105°
2026-05-05 00:20 41.47416 39.03487 34928 ft 483 kts 105°
2026-05-05 00:21 41.45763 39.12166 34927 ft 483 kts 105°
2026-05-05 00:21 41.44100 39.20861 34927 ft 484 kts 106°
2026-05-05 00:22 41.42429 39.29558 34928 ft 485 kts 106°
2026-05-05 00:22 41.40743 39.38292 34926 ft 485 kts 106°
2026-05-05 00:23 41.39062 39.46961 34924 ft 486 kts 106°
2026-05-05 00:23 41.37357 39.55720 34924 ft 486 kts 106°
2026-05-05 00:24 41.35661 39.64393 34925 ft 486 kts 107°
2026-05-05 00:24 41.33951 39.73097 34926 ft 486 kts 107°
2026-05-05 00:25 41.32232 39.81810 34925 ft 486 kts 107°
2026-05-05 00:25 41.30516 39.90472 34926 ft 487 kts 107°
2026-05-05 00:26 41.28782 39.99185 34927 ft 487 kts 107°
2026-05-05 00:26 41.27041 40.07899 34926 ft 487 kts 107°
2026-05-05 00:27 41.25288 40.16634 34926 ft 488 kts 107°
2026-05-05 00:27 41.23544 40.25291 34924 ft 489 kts 107°
2026-05-05 00:28 41.21781 40.34035 34925 ft 488 kts 105°
2026-05-05 00:28 41.21306 40.38518 34921 ft 493 kts 93°
2026-05-05 00:28 41.21557 40.43077 34929 ft 497 kts 82°
2026-05-05 00:28 41.22447 40.47485 34921 ft 500 kts 70°
2026-05-05 00:29 41.23851 40.51715 34931 ft 501 kts 67°
2026-05-05 00:29 41.26826 40.60156 34918 ft 504 kts 67°
2026-05-05 00:30 41.29754 40.68648 34916 ft 506 kts 68°
2026-05-05 00:30 41.32604 40.77156 34914 ft 506 kts 68°
2026-05-05 00:31 41.35449 40.85728 34911 ft 506 kts 68°
2026-05-05 00:31 41.38286 40.94289 34911 ft 505 kts 68°
2026-05-05 00:32 41.41119 41.02851 34909 ft 504 kts 68°
2026-05-05 00:32 41.43939 41.11400 34910 ft 503 kts 68°
2026-05-05 00:33 41.46729 41.19941 34908 ft 503 kts 69°
2026-05-05 00:33 41.49512 41.28499 34909 ft 503 kts 69°
2026-05-05 00:34 41.52293 41.36995 34911 ft 503 kts 69°
2026-05-05 00:34 41.54432 41.45826 34916 ft 498 kts 81°
2026-05-05 00:35 41.55209 41.54972 34913 ft 495 kts 91°
2026-05-05 00:35 41.55340 41.64173 34910 ft 495 kts 92°
2026-05-05 00:36 41.55449 41.73390 34925 ft 496 kts 92°
2026-05-05 00:36 41.55588 41.82625 34902 ft 498 kts 91°
2026-05-05 00:37 41.55741 41.91802 34911 ft 497 kts 91°
2026-05-05 00:37 41.55891 42.01047 34896 ft 497 kts 92°
2026-05-05 00:38 41.56032 42.10283 34894 ft 497 kts 92°
2026-05-05 00:38 41.56165 42.19538 34888 ft 497 kts 92°
2026-05-05 00:39 41.56289 42.28723 34903 ft 497 kts 92°
2026-05-05 00:39 41.56407 42.37985 34879 ft 498 kts 92°
2026-05-05 00:40 41.56517 42.47235 34908 ft 498 kts 92°
2026-05-05 00:40 41.56619 42.56454 34895 ft 499 kts 92°
2026-05-05 00:41 41.56714 42.65752 34879 ft 500 kts 92°
2026-05-05 00:41 41.56803 42.75029 34886 ft 500 kts 92°
2026-05-05 00:42 41.56884 42.84326 34895 ft 500 kts 93°
2026-05-05 00:42 41.56956 42.93555 34889 ft 500 kts 93°
2026-05-05 00:43 41.57022 43.02898 34895 ft 501 kts 93°
2026-05-05 00:43 41.57080 43.12150 34892 ft 501 kts 93°
2026-05-05 00:44 41.57132 43.21481 34885 ft 501 kts 93°
2026-05-05 00:44 41.57175 43.30760 34883 ft 501 kts 93°
2026-05-05 00:45 41.57211 43.40078 34884 ft 502 kts 94°
2026-05-05 00:45 41.57239 43.49409 34875 ft 502 kts 94°
2026-05-05 00:46 41.57260 43.58741 34881 ft 503 kts 94°
2026-05-05 00:46 41.57273 43.68076 34870 ft 503 kts 94°
2026-05-05 00:47 41.57279 43.77397 34862 ft 503 kts 94°
2026-05-05 00:47 41.57278 43.86726 34860 ft 504 kts 94°
2026-05-05 00:48 41.57269 43.96060 34876 ft 503 kts 94°
2026-05-05 00:48 41.57252 44.05424 34875 ft 504 kts 94°
2026-05-05 00:49 41.57229 44.14781 34877 ft 504 kts 94°
2026-05-05 00:49 41.56652 44.24066 34877 ft 499 kts 104°
2026-05-05 00:50 41.54879 44.32932 34885 ft 493 kts 113°
2026-05-05 00:50 41.52669 44.41619 34876 ft 494 kts 113°
2026-05-05 00:51 41.50451 44.50388 34872 ft 495 kts 113°
2026-05-05 00:51 41.48287 44.59062 34875 ft 496 kts 113°
2026-05-05 00:52 41.46107 44.67809 34880 ft 496 kts 113°
2026-05-05 00:52 41.43922 44.76540 34869 ft 497 kts 113°
2026-05-05 00:53 41.41720 44.85297 34868 ft 498 kts 113°
2026-05-05 00:53 41.39532 44.93967 34869 ft 499 kts 114°
2026-05-05 00:54 41.37290 45.02827 34868 ft 500 kts 114°
2026-05-05 00:54 41.35069 45.11558 34863 ft 500 kts 114°
2026-05-05 00:55 41.32822 45.20338 34857 ft 501 kts 114°
2026-05-05 00:55 41.30561 45.29140 34858 ft 502 kts 114°
2026-05-05 00:56 41.28295 45.37938 34859 ft 503 kts 114°
2026-05-05 00:56 41.26027 45.46717 34866 ft 504 kts 115°
2026-05-05 00:57 41.23738 45.55547 34872 ft 505 kts 115°
2026-05-05 00:57 41.21444 45.64364 34866 ft 505 kts 115°
2026-05-05 00:58 41.19130 45.73160 34863 ft 504 kts 115°
2026-05-05 00:58 41.16809 45.81894 34855 ft 503 kts 116°
2026-05-05 00:59 41.14479 45.90638 34859 ft 502 kts 116°
2026-05-05 00:59 41.12140 45.99400 34867 ft 502 kts 116°
2026-05-05 01:00 41.09820 46.08066 34875 ft 501 kts 116°
2026-05-05 01:00 41.07845 46.15414 34878 ft 501 kts 116°
2026-05-05 01:01 41.05119 46.25528 34888 ft 501 kts 117°
2026-05-05 01:01 41.02774 46.34235 34892 ft 503 kts 117°
2026-05-05 01:02 41.00833 46.41521 34892 ft 504 kts 117°
2026-05-05 01:02 40.98506 46.50252 34883 ft 504 kts 117°
2026-05-05 01:03 40.96161 46.59005 34890 ft 504 kts 117°
2026-05-05 01:03 40.93807 46.67747 34875 ft 504 kts 117°
2026-05-05 01:04 40.91444 46.76499 34875 ft 505 kts 118°
2026-05-05 01:04 40.87891 46.89549 34876 ft 504 kts 118°
2026-05-05 01:05 40.85491 46.98266 34871 ft 504 kts 118°
2026-05-05 01:05 40.83085 47.06994 34862 ft 504 kts 118°
2026-05-05 01:06 40.80664 47.15750 34867 ft 504 kts 118°
2026-05-05 01:06 40.78258 47.24417 34864 ft 504 kts 118°
2026-05-05 01:07 40.76002 47.32524 34864 ft 505 kts 119°
2026-05-05 01:07 40.73580 47.41199 34867 ft 505 kts 119°
2026-05-05 01:08 40.71137 47.49875 34870 ft 505 kts 119°
2026-05-05 01:08 40.68693 47.58514 34884 ft 505 kts 119°
2026-05-05 01:09 40.66233 47.67190 34875 ft 506 kts 119°
2026-05-05 01:09 40.63765 47.75872 34869 ft 507 kts 119°
2026-05-05 01:10 40.61287 47.84561 34868 ft 507 kts 120°
2026-05-05 01:10 40.58795 47.93273 34865 ft 508 kts 120°
2026-05-05 01:11 40.56470 48.02059 34867 ft 513 kts 116°
2026-05-05 01:11 40.54368 48.11055 34851 ft 514 kts 116°
2026-05-05 01:12 40.52175 48.19996 34859 ft 514 kts 116°
2026-05-05 01:12 40.49961 48.28939 34860 ft 514 kts 116°
2026-05-05 01:13 40.47754 48.37845 34857 ft 514 kts 116°
2026-05-05 01:13 40.45534 48.46786 34857 ft 514 kts 116°
2026-05-05 01:14 40.43308 48.55718 34862 ft 514 kts 116°
2026-05-05 01:14 40.41075 48.64643 34868 ft 515 kts 116°
2026-05-05 01:15 40.38831 48.73576 34869 ft 515 kts 116°
2026-05-05 01:15 40.36580 48.82504 34866 ft 515 kts 116°
2026-05-05 01:16 40.34339 48.91364 34865 ft 514 kts 116°
2026-05-05 01:16 40.32081 49.00262 34874 ft 514 kts 116°
2026-05-05 01:17 40.29806 49.09138 34887 ft 513 kts 116°
2026-05-05 01:17 40.27478 49.17988 35020 ft 516 kts 116°
2026-05-05 01:18 40.26313 49.22425 35400 ft 513 kts 116°
2026-05-05 01:18 40.25158 49.26884 35799 ft 511 kts 116°
2026-05-05 01:18 40.24044 49.31233 36107 ft 510 kts 116°
2026-05-05 01:18 40.22916 49.35638 36378 ft 510 kts 116°
2026-05-05 01:19 40.21787 49.40038 36635 ft 511 kts 116°
2026-05-05 01:19 40.20648 49.44451 36809 ft 511 kts 116°
2026-05-05 01:19 40.18668 49.53454 36882 ft 520 kts 107°
2026-05-05 01:20 40.17727 49.62825 36882 ft 520 kts 102°
2026-05-05 01:20 40.16941 49.72214 36882 ft 518 kts 102°
2026-05-05 01:21 40.16116 49.81555 36879 ft 516 kts 103°
2026-05-05 01:21 40.15249 49.90880 36882 ft 516 kts 103°
2026-05-05 01:22 40.14367 50.00174 36884 ft 517 kts 103°
2026-05-05 01:22 40.13475 50.09514 36883 ft 519 kts 103°
2026-05-05 01:23 40.12576 50.18884 36881 ft 520 kts 103°
2026-05-05 01:23 40.11674 50.28217 36884 ft 521 kts 103°
2026-05-05 01:24 40.10758 50.37615 36888 ft 521 kts 102°
2026-05-05 01:24 40.09833 50.47026 36875 ft 522 kts 103°
2026-05-05 01:25 40.08902 50.56413 36875 ft 521 kts 103°
2026-05-05 01:25 40.07962 50.65807 36876 ft 521 kts 103°
2026-05-05 01:26 40.07015 50.75191 36875 ft 521 kts 103°
2026-05-05 01:26 40.06062 50.84562 36875 ft 520 kts 103°
2026-05-05 01:27 40.05103 50.93908 36879 ft 520 kts 103°
2026-05-05 01:27 40.04134 51.03285 36884 ft 521 kts 103°
2026-05-05 01:28 40.03158 51.12649 36881 ft 521 kts 103°
2026-05-05 01:28 40.02178 51.21972 36875 ft 522 kts 103°
2026-05-05 01:29 40.01184 51.31366 36878 ft 523 kts 103°
2026-05-05 01:29 40.00180 51.40787 36875 ft 524 kts 103°
2026-05-05 01:30 39.99141 51.50197 36877 ft 523 kts 105°
2026-05-05 01:30 39.97520 51.59413 36875 ft 520 kts 110°
2026-05-05 01:31 39.95745 51.68566 36870 ft 521 kts 110°
2026-05-05 01:31 39.93995 51.77682 36868 ft 522 kts 109°
2026-05-05 01:32 39.92251 51.86886 36870 ft 522 kts 109°
2026-05-05 01:32 39.90514 51.96065 36874 ft 523 kts 109°
2026-05-05 01:33 39.88760 52.05282 36868 ft 523 kts 109°
2026-05-05 01:33 39.87010 52.14419 36860 ft 522 kts 109°
2026-05-05 01:34 39.85242 52.23606 36856 ft 522 kts 109°
2026-05-05 01:34 39.83473 52.32756 36851 ft 521 kts 109°
2026-05-05 01:35 39.81696 52.41907 36845 ft 521 kts 109°
2026-05-05 01:35 39.79926 52.50985 36842 ft 521 kts 109°
2026-05-05 01:36 39.78135 52.60122 36840 ft 521 kts 109°
2026-05-05 01:36 39.76338 52.69254 36838 ft 522 kts 109°
2026-05-05 01:37 39.74530 52.78406 36836 ft 522 kts 109°
2026-05-05 01:37 39.72719 52.87559 36830 ft 523 kts 109°
2026-05-05 01:38 39.70933 52.96731 36826 ft 524 kts 109°
2026-05-05 01:38 39.69147 53.05909 36826 ft 524 kts 109°
2026-05-05 01:39 39.67361 53.15024 36816 ft 525 kts 109°
2026-05-05 01:39 39.65550 53.24210 36814 ft 525 kts 109°
2026-05-05 01:40 39.63730 53.33393 36817 ft 526 kts 109°
2026-05-05 01:40 39.61897 53.42601 36819 ft 526 kts 109°
2026-05-05 01:41 39.60072 53.51733 36827 ft 526 kts 109°
2026-05-05 01:41 39.58226 53.60928 36817 ft 526 kts 109°
2026-05-05 01:42 39.56372 53.70122 36812 ft 526 kts 109°
2026-05-05 01:42 39.54825 53.77762 36811 ft 526 kts 109°
2026-05-05 01:43 39.52657 53.88426 36804 ft 526 kts 109°
2026-05-05 01:43 39.50784 53.97599 36804 ft 526 kts 109°
2026-05-05 01:44 39.49220 54.05213 36804 ft 526 kts 109°
2026-05-05 01:44 39.47310 54.14373 36803 ft 525 kts 109°
2026-05-05 01:45 39.45393 54.23501 36809 ft 525 kts 109°
2026-05-05 01:45 39.43474 54.32618 36812 ft 525 kts 109°
2026-05-05 01:46 39.41548 54.41740 36809 ft 525 kts 109°
2026-05-05 01:46 39.39627 54.50805 36815 ft 526 kts 109°
2026-05-05 01:47 39.37686 54.59919 36817 ft 526 kts 109°
2026-05-05 01:47 39.35740 54.69024 36820 ft 526 kts 109°
2026-05-05 01:48 39.33785 54.78128 36814 ft 526 kts 109°
2026-05-05 01:48 39.31824 54.87225 36818 ft 525 kts 109°
2026-05-05 01:49 39.29854 54.96323 36820 ft 525 kts 109°
2026-05-05 01:49 39.27879 55.05404 36821 ft 525 kts 109°
2026-05-05 01:50 39.25898 55.14483 36825 ft 525 kts 109°
2026-05-05 01:50 39.23920 55.23505 36825 ft 525 kts 109°
2026-05-05 01:51 39.21931 55.32546 36832 ft 525 kts 109°
2026-05-05 01:51 39.19925 55.41619 37043 ft 527 kts 109°
2026-05-05 01:52 39.18920 55.46156 37380 ft 525 kts 109°
2026-05-05 01:52 39.17918 55.50678 37720 ft 524 kts 109°
2026-05-05 01:52 39.16912 55.55198 38010 ft 523 kts 109°
2026-05-05 01:52 39.15907 55.59702 38275 ft 523 kts 109°
2026-05-05 01:53 39.14896 55.64223 38485 ft 524 kts 109°
2026-05-05 01:53 39.13883 55.68740 38579 ft 526 kts 109°
2026-05-05 01:53 39.12865 55.73275 38686 ft 528 kts 109°
2026-05-05 01:53 39.11855 55.77770 38752 ft 529 kts 109°
2026-05-05 01:54 39.09800 55.86891 38839 ft 531 kts 109°
2026-05-05 01:54 39.07719 55.96091 38837 ft 533 kts 109°
2026-05-05 01:55 39.05650 56.05201 38834 ft 534 kts 109°
2026-05-05 01:55 39.03543 56.14439 38825 ft 534 kts 109°
2026-05-05 01:56 39.01451 56.23581 38830 ft 534 kts 109°
2026-05-05 01:56 38.99330 56.32713 38823 ft 532 kts 111°
2026-05-05 01:57 38.96919 56.41643 38821 ft 530 kts 113°
2026-05-05 01:57 38.94391 56.50524 38821 ft 529 kts 113°
2026-05-05 01:58 38.91899 56.59412 38818 ft 528 kts 112°
2026-05-05 01:58 38.89436 56.68316 38822 ft 528 kts 112°
2026-05-05 01:59 38.86979 56.77208 38826 ft 529 kts 112°
2026-05-05 01:59 38.84523 56.86050 38829 ft 529 kts 112°
2026-05-05 02:00 38.82030 56.94988 38827 ft 531 kts 112°
2026-05-05 02:00 38.79531 57.03912 38829 ft 531 kts 112°
2026-05-05 02:01 38.77037 57.12790 38826 ft 532 kts 112°
2026-05-05 02:01 38.74521 57.21714 38828 ft 533 kts 112°
2026-05-05 02:02 38.71989 57.30667 38822 ft 534 kts 112°
2026-05-05 02:02 38.69454 57.39600 38820 ft 534 kts 112°
2026-05-05 02:03 38.66911 57.48533 38818 ft 534 kts 112°
2026-05-05 02:03 38.64360 57.57467 38819 ft 534 kts 112°
2026-05-05 02:04 38.61815 57.66310 38813 ft 533 kts 114°
2026-05-05 02:04 38.58873 57.74986 38824 ft 531 kts 117°
2026-05-05 02:05 38.55811 57.83561 38815 ft 530 kts 117°
2026-05-05 02:05 38.52764 57.92146 38816 ft 530 kts 117°
2026-05-05 02:06 38.49732 58.00748 38816 ft 530 kts 117°
2026-05-05 02:06 38.46709 58.09309 38824 ft 529 kts 117°
2026-05-05 02:07 38.43677 58.17864 38821 ft 529 kts 117°
2026-05-05 02:07 38.40668 58.26419 38814 ft 529 kts 114°
2026-05-05 02:08 38.38450 58.35343 38819 ft 531 kts 105°
2026-05-05 02:08 38.36696 58.44484 38817 ft 531 kts 105°
2026-05-05 02:09 38.34935 58.53617 38815 ft 531 kts 105°
2026-05-05 02:09 38.33122 58.62746 38820 ft 531 kts 106°
2026-05-05 02:10 38.31287 58.71849 38819 ft 531 kts 106°
2026-05-05 02:10 38.29442 58.80949 38818 ft 531 kts 106°
2026-05-05 02:11 38.27606 58.89988 38826 ft 531 kts 106°
2026-05-05 02:11 38.25752 58.99085 38827 ft 531 kts 106°
2026-05-05 02:12 38.22956 59.12732 38829 ft 531 kts 106°
2026-05-05 02:13 38.21083 59.21819 38838 ft 531 kts 106°
2026-05-05 02:13 38.19205 59.30893 38838 ft 531 kts 106°
2026-05-05 02:14 38.17331 59.39912 38843 ft 531 kts 106°
2026-05-05 02:14 38.15432 59.49015 38846 ft 531 kts 106°
2026-05-05 02:15 38.13525 59.58112 38849 ft 532 kts 106°
2026-05-05 02:15 38.11626 59.67137 38856 ft 532 kts 106°
2026-05-05 02:16 38.09703 59.76240 38861 ft 532 kts 106°
2026-05-05 02:16 38.07776 59.85320 38861 ft 532 kts 106°
2026-05-05 02:17 38.05857 59.94328 38865 ft 532 kts 106°
2026-05-05 02:17 38.03915 60.03407 38866 ft 532 kts 106°
2026-05-05 02:18 38.01971 60.12462 38868 ft 532 kts 106°
2026-05-05 02:18 38.00013 60.21537 38877 ft 532 kts 106°
2026-05-05 02:19 37.98050 60.30541 38882 ft 532 kts 106°
2026-05-05 02:19 37.96068 60.39590 38880 ft 532 kts 107°
2026-05-05 02:20 37.94092 60.48585 38888 ft 532 kts 107°
2026-05-05 02:20 37.92101 60.57621 38883 ft 532 kts 107°
2026-05-05 02:21 37.90102 60.66657 38893 ft 532 kts 107°
2026-05-05 02:21 37.88111 60.75622 38894 ft 532 kts 107°
2026-05-05 02:22 37.86088 60.84694 38901 ft 532 kts 107°
2026-05-05 02:22 37.84083 60.93646 38900 ft 532 kts 107°
2026-05-05 02:23 37.82056 61.02663 38903 ft 532 kts 107°
2026-05-05 02:23 37.80036 61.11617 38907 ft 531 kts 107°
2026-05-05 02:24 37.79556 61.13738 38908 ft 531 kts 107°
2026-05-05 02:24 37.78215 61.19654 38913 ft 531 kts 107°
2026-05-05 02:25 37.76168 61.28659 38917 ft 531 kts 107°
2026-05-05 02:25 37.74129 61.37591 38916 ft 531 kts 107°
2026-05-05 02:26 37.72069 61.46585 38920 ft 532 kts 107°
2026-05-05 02:26 37.70011 61.55535 38931 ft 532 kts 107°
2026-05-05 02:27 37.67940 61.64508 38935 ft 532 kts 107°
2026-05-05 02:27 37.67628 61.65853 38936 ft 532 kts 107°
2026-05-05 02:28 37.66091 61.72490 38938 ft 532 kts 107°
2026-05-05 02:28 37.64359 61.79946 38940 ft 532 kts 107°
2026-05-05 02:29 37.61729 61.88669 38944 ft 529 kts 118°
2026-05-05 02:29 37.57994 61.96604 38934 ft 526 kts 129°
2026-05-05 02:30 37.53616 62.03990 38938 ft 526 kts 130°
2026-05-05 02:30 37.49202 62.11348 38940 ft 526 kts 130°
2026-05-05 02:31 37.44808 62.18744 38945 ft 527 kts 129°
2026-05-05 02:31 37.40443 62.26129 38945 ft 528 kts 129°
2026-05-05 02:32 37.36050 62.33560 38946 ft 529 kts 129°
2026-05-05 02:32 37.31683 62.40922 38947 ft 530 kts 129°
2026-05-05 02:33 37.27258 62.48364 38951 ft 530 kts 129°
2026-05-05 02:33 37.22827 62.55794 38948 ft 531 kts 129°
2026-05-05 02:34 37.18395 62.63212 38955 ft 531 kts 129°
2026-05-05 02:34 37.13956 62.70626 38955 ft 531 kts 130°
2026-05-05 02:35 37.09519 62.78021 38957 ft 532 kts 130°
2026-05-05 02:35 37.05060 62.85433 38961 ft 532 kts 130°
2026-05-05 02:36 37.00597 62.92839 38967 ft 533 kts 130°
2026-05-05 02:36 36.96123 63.00244 38970 ft 533 kts 130°
2026-05-05 02:37 36.91638 63.07652 38977 ft 534 kts 130°
2026-05-05 02:37 36.87139 63.15068 38978 ft 534 kts 130°
2026-05-05 02:38 36.82637 63.22471 38982 ft 534 kts 130°
2026-05-05 02:38 36.78141 63.29848 38987 ft 535 kts 130°
2026-05-05 02:39 36.73651 63.37200 38989 ft 535 kts 130°
2026-05-05 02:39 36.69116 63.44609 38996 ft 535 kts 130°
2026-05-05 02:40 36.64598 63.51974 38995 ft 535 kts 130°
2026-05-05 02:40 36.60089 63.59309 39000 ft 535 kts 130°
2026-05-05 02:41 36.55550 63.66678 39002 ft 535 kts 130°
2026-05-05 02:41 36.51036 63.73988 39004 ft 535 kts 130°
2026-05-05 02:42 36.46496 63.81326 39008 ft 535 kts 130°
2026-05-05 02:42 36.41946 63.88663 39007 ft 535 kts 130°
2026-05-05 02:43 36.37380 63.96010 39012 ft 536 kts 130°
2026-05-05 02:43 36.32824 64.03326 39016 ft 536 kts 130°
2026-05-05 02:44 36.28260 64.10640 39016 ft 536 kts 130°
2026-05-05 02:44 36.23719 64.17901 39017 ft 536 kts 130°
2026-05-05 02:45 36.19138 64.25213 39023 ft 536 kts 130°
2026-05-05 02:45 36.14604 64.32502 39021 ft 537 kts 129°
2026-05-05 02:46 36.10176 64.39957 39030 ft 538 kts 128°
2026-05-05 02:46 36.05794 64.47411 39025 ft 539 kts 128°
2026-05-05 02:47 36.01351 64.54906 39022 ft 539 kts 129°
2026-05-05 02:47 35.96899 64.62361 39041 ft 539 kts 129°
2026-05-05 02:48 35.92427 64.69822 39028 ft 540 kts 129°
2026-05-05 02:48 35.87982 64.77224 39042 ft 540 kts 129°
2026-05-05 02:49 35.83500 64.84678 39036 ft 540 kts 129°
2026-05-05 02:49 35.79021 64.92109 39058 ft 540 kts 129°
2026-05-05 02:50 35.74566 64.99486 39080 ft 539 kts 129°
2026-05-05 02:50 35.70084 65.06892 39084 ft 539 kts 129°
2026-05-05 02:51 35.65561 65.14348 39094 ft 539 kts 129°
2026-05-05 02:51 35.61081 65.21718 39098 ft 540 kts 129°
2026-05-05 02:52 35.56574 65.29117 39116 ft 541 kts 129°
2026-05-05 02:52 35.52046 65.36532 39116 ft 542 kts 129°
2026-05-05 02:53 35.47521 65.43931 39133 ft 542 kts 129°
2026-05-05 02:53 35.43011 65.51288 39140 ft 542 kts 129°
2026-05-05 02:54 35.38470 65.58680 39141 ft 542 kts 129°
2026-05-05 02:54 35.33942 65.66036 39111 ft 542 kts 129°
2026-05-05 02:55 35.29400 65.73398 39148 ft 541 kts 129°
2026-05-05 02:55 35.24851 65.80756 39172 ft 541 kts 129°
2026-05-05 02:56 35.20234 65.88207 39171 ft 543 kts 129°
2026-05-05 02:56 35.15690 65.95527 39183 ft 544 kts 129°
2026-05-05 02:57 35.11102 66.02902 39185 ft 545 kts 129°
2026-05-05 02:57 35.06461 66.10346 39178 ft 546 kts 129°
2026-05-05 02:58 35.02604 66.16524 39188 ft 546 kts 129°
2026-05-05 02:58 34.97236 66.25101 39182 ft 547 kts 129°
2026-05-05 02:59 34.92609 66.32436 39184 ft 546 kts 129°
2026-05-05 02:59 34.87972 66.39725 39190 ft 544 kts 129°
2026-05-05 03:00 34.84078 66.45840 39203 ft 544 kts 129°
2026-05-05 03:00 34.79442 66.53117 39190 ft 544 kts 130°
2026-05-05 03:01 34.74805 66.60385 39193 ft 544 kts 129°
2026-05-05 03:01 34.70154 66.67657 39192 ft 544 kts 129°
2026-05-05 03:02 34.65521 66.74889 39194 ft 546 kts 129°
2026-05-05 03:02 34.60833 66.82190 39194 ft 548 kts 130°
2026-05-05 03:03 34.56062 66.89609 39200 ft 549 kts 129°
2026-05-05 03:03 34.51281 66.97011 39196 ft 551 kts 130°
2026-05-05 03:04 34.46551 67.04295 39188 ft 552 kts 130°
2026-05-05 03:04 34.41793 67.11608 39186 ft 552 kts 130°
2026-05-05 03:05 34.37026 67.18926 39189 ft 551 kts 130°
2026-05-05 03:05 34.32273 67.26210 39172 ft 550 kts 130°
2026-05-05 03:06 34.27532 67.33461 39166 ft 547 kts 130°
2026-05-05 03:06 34.22842 67.40617 39175 ft 546 kts 130°
2026-05-05 03:07 34.18108 67.47828 39152 ft 546 kts 130°
2026-05-05 03:07 34.13382 67.55012 39150 ft 546 kts 130°
2026-05-05 03:08 34.08679 67.62145 39172 ft 546 kts 130°
2026-05-05 03:08 34.03923 67.69348 39173 ft 548 kts 130°
2026-05-05 03:09 33.99159 67.76548 39171 ft 551 kts 130°
2026-05-05 03:09 33.94350 67.83754 39165 ft 552 kts 130°
2026-05-05 03:10 33.89474 67.90968 39158 ft 553 kts 130°
2026-05-05 03:10 33.84614 67.98147 39144 ft 553 kts 130°
2026-05-05 03:11 33.79784 68.05285 39146 ft 554 kts 130°
2026-05-05 03:11 33.74910 68.12478 39123 ft 553 kts 130°
2026-05-05 03:12 33.70034 68.19657 39124 ft 552 kts 130°
2026-05-05 03:12 33.65189 68.26776 39119 ft 553 kts 130°
2026-05-05 03:13 33.60357 68.33864 39098 ft 552 kts 130°
2026-05-05 03:13 33.55444 68.41056 39111 ft 551 kts 130°
2026-05-05 03:14 33.50546 68.48072 39105 ft 552 kts 132°
2026-05-05 03:14 33.45684 68.54860 39097 ft 552 kts 132°
2026-05-05 03:15 33.40592 68.61979 39098 ft 552 kts 132°
2026-05-05 03:15 33.35598 68.68984 39099 ft 553 kts 132°
2026-05-05 03:16 33.30629 68.75946 39093 ft 553 kts 132°
2026-05-05 03:16 33.25709 68.83025 39094 ft 553 kts 129°
2026-05-05 03:17 33.21015 68.90324 39104 ft 552 kts 128°
2026-05-05 03:17 33.16442 68.97499 39103 ft 552 kts 128°
2026-05-05 03:18 33.11749 69.04791 39101 ft 552 kts 128°
2026-05-05 03:18 33.07057 69.12031 39097 ft 551 kts 128°
2026-05-05 03:19 33.00046 69.22822 39105 ft 549 kts 129°
2026-05-05 03:19 32.95411 69.29946 39108 ft 550 kts 129°
2026-05-05 03:20 32.90738 69.37114 39102 ft 551 kts 129°
2026-05-05 03:20 32.86032 69.44319 39094 ft 551 kts 129°
2026-05-05 03:21 32.81308 69.51511 39085 ft 551 kts 129°
2026-05-05 03:21 32.76626 69.58617 39075 ft 551 kts 129°
2026-05-05 03:22 32.71891 69.65792 39075 ft 551 kts 129°
2026-05-05 03:22 32.67142 69.72983 39074 ft 552 kts 129°
2026-05-05 03:23 32.62429 69.80104 39071 ft 551 kts 128°
2026-05-05 03:23 32.57750 69.87161 39065 ft 551 kts 129°
2026-05-05 03:24 32.52996 69.94315 39044 ft 551 kts 129°
2026-05-05 03:24 32.48280 70.01402 39054 ft 550 kts 129°
2026-05-05 03:25 32.43522 70.08537 39012 ft 550 kts 129°
2026-05-05 03:25 32.39571 70.14453 39029 ft 551 kts 129°
2026-05-05 03:26 32.34806 70.21618 38995 ft 552 kts 129°
2026-05-05 03:26 32.30138 70.28840 38989 ft 553 kts 128°
2026-05-05 03:27 32.25461 70.36112 38991 ft 553 kts 128°
2026-05-05 03:27 32.20781 70.43342 38985 ft 554 kts 128°
2026-05-05 03:28 32.16100 70.50535 38973 ft 554 kts 128°
2026-05-05 03:28 32.11405 70.57738 38973 ft 554 kts 128°
2026-05-05 03:29 32.06727 70.64904 38970 ft 553 kts 128°
2026-05-05 03:29 32.01980 70.72163 38968 ft 553 kts 128°
2026-05-05 03:30 31.97272 70.79350 38966 ft 552 kts 128°
2026-05-05 03:30 31.92592 70.86507 38965 ft 552 kts 127°
2026-05-05 03:31 31.88542 70.94186 38969 ft 551 kts 117°
2026-05-05 03:31 31.85024 71.02202 38967 ft 551 kts 116°
2026-05-05 03:32 31.81500 71.10201 38966 ft 551 kts 117°
2026-05-05 03:32 31.77924 71.18167 38961 ft 551 kts 117°
2026-05-05 03:33 31.74314 71.26147 38964 ft 551 kts 117°
2026-05-05 03:33 31.70714 71.34093 38965 ft 551 kts 117°
2026-05-05 03:34 31.67124 71.42014 38964 ft 550 kts 117°
2026-05-05 03:34 31.63517 71.49957 38964 ft 550 kts 117°
2026-05-05 03:35 31.59918 71.57865 38964 ft 550 kts 117°
2026-05-05 03:35 31.56323 71.65735 38964 ft 550 kts 118°
2026-05-05 03:36 31.52696 71.73641 38964 ft 550 kts 118°
2026-05-05 03:36 31.49064 71.81547 38963 ft 550 kts 118°
2026-05-05 03:37 31.45444 71.89415 38963 ft 550 kts 118°
2026-05-05 03:37 31.41806 71.97306 38967 ft 550 kts 118°
2026-05-05 03:38 31.38155 72.05209 38966 ft 550 kts 118°
2026-05-05 03:38 31.34526 72.13048 38963 ft 550 kts 118°
2026-05-05 03:39 31.30874 72.20923 38963 ft 550 kts 118°
2026-05-05 03:39 31.28003 72.29112 38960 ft 545 kts 99°
2026-05-05 03:40 31.27395 72.37828 38956 ft 533 kts 78°
2026-05-05 03:40 31.28411 72.46383 38969 ft 530 kts 76°
2026-05-05 03:41 31.29488 72.54908 38966 ft 532 kts 76°
2026-05-05 03:41 31.30489 72.63615 38965 ft 533 kts 77°
2026-05-05 03:42 31.31451 72.72417 38965 ft 534 kts 77°
2026-05-05 03:42 31.32384 72.80986 38968 ft 534 kts 77°
2026-05-05 03:43 31.33324 72.89599 38970 ft 534 kts 77°
2026-05-05 03:43 31.34258 72.98207 38965 ft 533 kts 78°
2026-05-05 03:44 31.35190 73.06835 38970 ft 532 kts 78°
2026-05-05 03:44 31.36111 73.15402 38965 ft 531 kts 78°
2026-05-05 03:45 31.37023 73.23943 38968 ft 530 kts 78°
2026-05-05 03:45 31.37932 73.32511 38967 ft 530 kts 78°
2026-05-05 03:46 31.38836 73.41086 38965 ft 529 kts 78°
2026-05-05 03:46 31.39730 73.49620 38966 ft 529 kts 78°
2026-05-05 03:47 31.40617 73.58147 38969 ft 529 kts 78°
2026-05-05 03:47 31.41507 73.66754 38968 ft 529 kts 78°
2026-05-05 03:48 31.42385 73.75301 38969 ft 528 kts 79°
2026-05-05 03:48 31.43224 73.83680 38965 ft 528 kts 79°
2026-05-05 03:49 31.44074 73.92237 38968 ft 528 kts 79°
2026-05-05 03:49 31.44501 74.00777 38961 ft 532 kts 89°
2026-05-05 03:50 31.43664 74.09399 38974 ft 535 kts 100°
2026-05-05 03:50 31.42016 74.17912 38985 ft 535 kts 102°
2026-05-05 03:51 31.40339 74.26401 38987 ft 535 kts 101°
2026-05-05 03:51 31.38971 74.33562 38990 ft 534 kts 101°
2026-05-05 03:52 31.37367 74.42064 38988 ft 534 kts 101°
2026-05-05 03:52 31.35760 74.50531 38985 ft 534 kts 101°
2026-05-05 03:53 31.34065 74.58985 38964 ft 534 kts 104°
2026-05-05 03:53 31.32011 74.67343 38968 ft 533 kts 105°
2026-05-05 03:54 31.29696 74.75515 38962 ft 533 kts 114°
2026-05-05 03:54 31.26076 74.83076 38957 ft 531 kts 127°
2026-05-05 03:55 31.21508 74.89827 38951 ft 530 kts 131°
2026-05-05 03:55 31.16808 74.96494 38941 ft 531 kts 131°
2026-05-05 03:56 31.12157 75.03144 38945 ft 531 kts 131°
2026-05-05 03:56 31.07508 75.09850 38962 ft 531 kts 131°
2026-05-05 03:57 31.02851 75.16578 38964 ft 531 kts 131°
2026-05-05 03:57 30.98235 75.23234 38964 ft 531 kts 131°
2026-05-05 03:58 30.93660 75.29814 38963 ft 531 kts 131°
2026-05-05 03:58 30.88999 75.36503 38962 ft 531 kts 131°
2026-05-05 03:59 30.84363 75.43146 38966 ft 531 kts 131°
2026-05-05 03:59 30.79701 75.49814 38966 ft 531 kts 131°
2026-05-05 04:00 30.75032 75.56481 38967 ft 531 kts 131°
2026-05-05 04:00 30.70345 75.63163 38966 ft 531 kts 131°
2026-05-05 04:01 30.65680 75.69802 38967 ft 532 kts 131°
2026-05-05 04:01 30.61016 75.76429 38967 ft 532 kts 131°
2026-05-05 04:02 30.56317 75.83093 38969 ft 532 kts 131°
2026-05-05 04:02 30.51614 75.89752 38967 ft 532 kts 131°
2026-05-05 04:03 30.46933 75.96370 38976 ft 532 kts 131°
2026-05-05 04:03 30.42239 76.02994 38968 ft 532 kts 131°
2026-05-05 04:04 30.37529 76.09630 38967 ft 531 kts 131°
2026-05-05 04:04 30.32836 76.16231 38970 ft 530 kts 131°
2026-05-05 04:05 30.28154 76.22806 38968 ft 529 kts 131°
2026-05-05 04:05 30.23415 76.29448 38969 ft 528 kts 132°
2026-05-05 04:06 30.18718 76.36022 38967 ft 528 kts 132°
2026-05-05 04:06 30.14066 76.42522 38963 ft 527 kts 132°
2026-05-05 04:07 30.09389 76.49047 38963 ft 526 kts 132°
2026-05-05 04:07 30.04727 76.55538 38963 ft 525 kts 132°
2026-05-05 04:08 30.00095 76.61979 38958 ft 524 kts 132°
2026-05-05 04:08 29.95439 76.68442 38957 ft 522 kts 132°
2026-05-05 04:09 29.90819 76.74845 38947 ft 521 kts 133°
2026-05-05 04:09 29.86176 76.81270 38946 ft 520 kts 133°
2026-05-05 04:10 29.81557 76.87652 38946 ft 519 kts 133°
2026-05-05 04:10 29.76920 76.94047 38950 ft 519 kts 133°
2026-05-05 04:11 29.72292 77.00421 38952 ft 518 kts 133°
2026-05-05 04:11 29.67642 77.06813 38951 ft 518 kts 133°
2026-05-05 04:12 29.63050 77.13117 38948 ft 518 kts 133°
2026-05-05 04:12 29.58413 77.19472 38968 ft 518 kts 133°
2026-05-05 04:13 29.53754 77.25847 38961 ft 518 kts 133°
2026-05-05 04:13 29.49145 77.32145 38958 ft 518 kts 133°
2026-05-05 04:14 29.44493 77.38492 38951 ft 517 kts 133°
2026-05-05 04:14 29.39883 77.44773 38949 ft 517 kts 134°
2026-05-05 04:15 29.35269 77.51047 38956 ft 516 kts 134°
2026-05-05 04:15 29.30622 77.57357 38949 ft 515 kts 134°
2026-05-05 04:16 29.26022 77.63595 38946 ft 514 kts 134°
2026-05-05 04:16 29.21366 77.69898 38949 ft 513 kts 134°
2026-05-05 04:17 29.16776 77.76101 38950 ft 512 kts 134°
2026-05-05 04:17 29.12166 77.82322 38948 ft 511 kts 134°
2026-05-05 04:18 29.07583 77.88498 38949 ft 511 kts 134°
2026-05-05 04:18 29.02960 77.94718 38951 ft 510 kts 135°
2026-05-05 04:19 28.98350 78.00912 38952 ft 510 kts 135°
2026-05-05 04:19 28.93710 78.07136 38950 ft 510 kts 135°
2026-05-05 04:20 28.89092 78.13321 38952 ft 510 kts 135°
2026-05-05 04:20 28.84504 78.19457 38954 ft 509 kts 135°
2026-05-05 04:21 28.79880 78.25632 38956 ft 509 kts 135°
2026-05-05 04:21 28.75305 78.31734 38952 ft 508 kts 135°
2026-05-05 04:22 28.70695 78.37871 38954 ft 508 kts 135°
2026-05-05 04:22 28.66907 78.42909 38959 ft 508 kts 136°
2026-05-05 04:23 28.62266 78.49071 38957 ft 507 kts 136°
2026-05-05 04:23 28.57700 78.55125 38958 ft 507 kts 136°
2026-05-05 04:24 28.53094 78.61222 38953 ft 508 kts 136°
2026-05-05 04:25 28.46164 78.70381 38958 ft 508 kts 136°
2026-05-05 04:25 28.41543 78.76477 38961 ft 508 kts 136°
2026-05-05 04:26 28.36919 78.82568 38955 ft 508 kts 136°
2026-05-05 04:26 28.32323 78.88614 38955 ft 508 kts 136°
2026-05-05 04:27 28.27684 78.94706 38955 ft 508 kts 136°
2026-05-05 04:27 28.23085 79.00738 38952 ft 508 kts 137°
2026-05-05 04:28 28.18466 79.06788 38950 ft 507 kts 137°
2026-05-05 04:28 28.13842 79.12835 38946 ft 507 kts 137°
2026-05-05 04:29 28.09220 79.18871 38950 ft 506 kts 137°
2026-05-05 04:29 28.04531 79.24984 38954 ft 506 kts 137°
2026-05-05 04:30 27.99916 79.30993 38959 ft 507 kts 137°
2026-05-05 04:30 27.95273 79.37030 38959 ft 507 kts 137°
2026-05-05 04:31 27.90664 79.43015 38959 ft 507 kts 137°
2026-05-05 04:31 27.86023 79.49032 38959 ft 507 kts 137°
2026-05-05 04:32 27.81375 79.55051 38963 ft 507 kts 137°
2026-05-05 04:32 27.76737 79.61047 38957 ft 507 kts 137°
2026-05-05 04:33 27.72105 79.67027 38963 ft 507 kts 138°
2026-05-05 04:33 27.67458 79.73020 38945 ft 507 kts 138°
2026-05-05 04:34 27.62832 79.78974 38956 ft 507 kts 138°
2026-05-05 04:34 27.58159 79.84981 38963 ft 508 kts 138°
2026-05-05 04:35 27.53506 79.90955 38964 ft 509 kts 138°
2026-05-05 04:35 27.48825 79.96957 38960 ft 509 kts 138°
2026-05-05 04:36 27.44136 80.02960 38972 ft 510 kts 138°
2026-05-05 04:36 27.39449 80.08953 38964 ft 509 kts 138°
2026-05-05 04:37 27.34783 80.14910 38963 ft 509 kts 138°
2026-05-05 04:37 27.30099 80.20883 38950 ft 509 kts 138°
2026-05-05 04:38 27.25449 80.26804 38949 ft 507 kts 138°
2026-05-05 04:38 27.20814 80.32697 38949 ft 506 kts 139°
2026-05-05 04:39 27.16070 80.38722 38952 ft 505 kts 138°
2026-05-05 04:39 27.11407 80.44633 38952 ft 504 kts 138°
2026-05-05 04:40 27.06782 80.50490 38954 ft 503 kts 138°
2026-05-05 04:40 27.02111 80.56396 38948 ft 502 kts 138°
2026-05-05 04:41 26.97482 80.62242 38943 ft 502 kts 137°
2026-05-05 04:41 26.92822 80.68119 38945 ft 502 kts 137°
2026-05-05 04:42 26.88179 80.73967 38984 ft 504 kts 137°
2026-05-05 04:42 26.83510 80.79841 38967 ft 505 kts 137°
2026-05-05 04:43 26.78884 80.85740 38960 ft 509 kts 133°
2026-05-05 04:43 26.75195 80.92629 38974 ft 520 kts 119°
2026-05-05 04:44 26.72839 81.00357 38971 ft 527 kts 110°
2026-05-05 04:44 26.70872 81.08217 38960 ft 528 kts 109°
2026-05-05 04:45 26.68873 81.16119 38962 ft 528 kts 110°
2026-05-05 04:45 26.66804 81.24044 38957 ft 527 kts 110°
2026-05-05 04:46 26.64723 81.31894 38956 ft 526 kts 110°
2026-05-05 04:46 26.62646 81.39709 38963 ft 525 kts 110°
2026-05-05 04:47 26.60542 81.47618 38963 ft 524 kts 110°
2026-05-05 04:47 26.58451 81.55468 38968 ft 524 kts 110°
2026-05-05 04:48 26.56383 81.63215 38973 ft 524 kts 110°
2026-05-05 04:48 26.54275 81.71090 38984 ft 525 kts 110°
2026-05-05 04:49 26.52186 81.78875 38980 ft 527 kts 110°
2026-05-05 04:49 26.50409 81.85484 38988 ft 529 kts 111°
2026-05-05 04:50 26.48273 81.93408 38984 ft 532 kts 111°
2026-05-05 04:50 26.46129 82.01344 38985 ft 535 kts 111°
2026-05-05 04:51 26.43970 82.09318 38985 ft 537 kts 111°
2026-05-05 04:51 26.41803 82.17305 38983 ft 538 kts 111°
2026-05-05 04:52 26.39636 82.25270 38983 ft 538 kts 111°
2026-05-05 04:52 26.37453 82.33279 38979 ft 538 kts 111°
2026-05-05 04:53 26.35271 82.41259 38973 ft 536 kts 111°
2026-05-05 04:53 26.33109 82.49149 38969 ft 535 kts 111°
2026-05-05 04:54 26.30926 82.57097 38970 ft 534 kts 111°
2026-05-05 04:54 26.28749 82.65004 38969 ft 533 kts 111°
2026-05-05 04:55 26.26576 82.72875 38968 ft 532 kts 111°
2026-05-05 04:55 26.24394 82.80759 38969 ft 532 kts 111°
2026-05-05 04:56 26.22209 82.88638 38967 ft 532 kts 111°
2026-05-05 04:56 26.20020 82.96514 38975 ft 532 kts 111°
2026-05-05 04:57 26.17834 83.04361 38964 ft 532 kts 112°
2026-05-05 04:57 26.15608 83.12331 38968 ft 532 kts 112°
2026-05-05 04:58 26.13409 83.20186 38967 ft 532 kts 112°
2026-05-05 04:58 26.11203 83.28051 38963 ft 532 kts 112°
2026-05-05 04:59 26.08983 83.35946 38967 ft 532 kts 112°
2026-05-05 04:59 26.06756 83.43849 38958 ft 531 kts 112°
2026-05-05 05:00 26.04546 83.51676 38960 ft 531 kts 112°
2026-05-05 05:00 26.02328 83.59513 38951 ft 530 kts 112°
2026-05-05 05:01 26.00131 83.67271 38953 ft 530 kts 112°
2026-05-05 05:01 25.97888 83.75187 38948 ft 529 kts 112°
2026-05-05 05:02 25.95654 83.83053 38948 ft 528 kts 112°
2026-05-05 05:02 25.93451 83.90795 38940 ft 528 kts 112°
2026-05-05 05:03 25.91235 83.98560 38942 ft 528 kts 112°
2026-05-05 05:03 25.89008 84.06349 38934 ft 527 kts 112°
2026-05-05 05:04 25.86786 84.14097 38950 ft 527 kts 112°
2026-05-05 05:04 25.84565 84.21832 38953 ft 527 kts 112°
2026-05-05 05:05 25.82327 84.29603 38947 ft 527 kts 112°
2026-05-05 05:05 25.80099 84.37328 38938 ft 527 kts 112°
2026-05-05 05:06 25.77858 84.45079 38949 ft 527 kts 112°
2026-05-05 05:06 25.75627 84.52777 38951 ft 526 kts 112°
2026-05-05 05:07 25.73375 84.60531 38956 ft 526 kts 112°
2026-05-05 05:07 25.71127 84.68254 38950 ft 525 kts 112°
2026-05-05 05:08 25.68894 84.75911 38955 ft 525 kts 112°
2026-05-05 05:08 25.66650 84.83586 38947 ft 524 kts 112°
2026-05-05 05:09 25.64398 84.91273 38944 ft 523 kts 112°
2026-05-05 05:09 25.62142 84.98961 38941 ft 523 kts 112°
2026-05-05 05:10 25.59892 85.06609 38940 ft 522 kts 112°
2026-05-05 05:10 25.58099 85.14391 38945 ft 526 kts 105°
2026-05-05 05:11 25.56751 85.22368 38939 ft 526 kts 104°
2026-05-05 05:11 25.55423 85.30314 38946 ft 526 kts 104°
2026-05-05 05:12 25.54044 85.38288 38941 ft 526 kts 105°
2026-05-05 05:12 25.52642 85.46244 38946 ft 526 kts 105°
2026-05-05 05:13 25.51455 85.52946 38942 ft 527 kts 105°
2026-05-05 05:13 25.49813 85.62206 38944 ft 527 kts 105°
2026-05-05 05:14 25.48621 85.68916 38942 ft 527 kts 105°
2026-05-05 05:14 25.47211 85.76837 38936 ft 527 kts 105°
2026-05-05 05:15 25.45788 85.84800 38940 ft 527 kts 105°
2026-05-05 05:15 25.44357 85.92781 38939 ft 527 kts 105°
2026-05-05 05:16 25.42918 86.00777 38934 ft 527 kts 105°
2026-05-05 05:16 25.41475 86.08774 38934 ft 527 kts 105°
2026-05-05 05:17 25.40044 86.16677 38936 ft 526 kts 105°
2026-05-05 05:17 25.38593 86.24659 38949 ft 531 kts 104°
2026-05-05 05:18 25.37126 86.32716 38933 ft 535 kts 104°
2026-05-05 05:18 25.35614 86.40807 38937 ft 536 kts 108°
2026-05-05 05:19 25.33262 86.48567 38919 ft 529 kts 119°
2026-05-05 05:19 25.30187 86.55880 38933 ft 527 kts 120°
2026-05-05 05:20 25.27065 86.63220 38930 ft 526 kts 120°
2026-05-05 05:20 25.23995 86.70545 38930 ft 524 kts 119°
2026-05-05 05:21 25.20956 86.77851 38928 ft 523 kts 119°
2026-05-05 05:21 25.17922 86.85140 38935 ft 522 kts 119°
2026-05-05 05:22 25.14892 86.92401 38936 ft 521 kts 119°
2026-05-05 05:22 25.11850 86.99672 38930 ft 521 kts 120°
2026-05-05 05:23 25.08806 87.06935 38932 ft 521 kts 120°
2026-05-05 05:23 25.05768 87.14172 38939 ft 521 kts 120°
2026-05-05 05:24 25.02717 87.21431 38938 ft 522 kts 120°
2026-05-05 05:24 24.99671 87.28664 38941 ft 522 kts 120°
2026-05-05 05:25 24.96612 87.35915 38938 ft 523 kts 120°
2026-05-05 05:25 24.93536 87.43198 38938 ft 523 kts 120°
2026-05-05 05:26 24.90460 87.50468 38929 ft 523 kts 120°
2026-05-05 05:26 24.87376 87.57746 38942 ft 523 kts 120°
2026-05-05 05:27 24.84310 87.64968 38944 ft 523 kts 120°
2026-05-05 05:27 24.79698 87.75814 38938 ft 522 kts 120°
2026-05-05 05:28 24.76623 87.83078 38936 ft 522 kts 119°
2026-05-05 05:28 24.73657 87.90314 38935 ft 521 kts 118°
2026-05-05 05:29 24.71048 87.96684 38937 ft 521 kts 118°
2026-05-05 05:41 24.70490 87.98040 38939 ft 521 kts 118°
2026-05-05 05:41 24.67509 88.05250 38939 ft 520 kts 119°
2026-05-05 05:42 24.64482 88.12499 38762 ft 519 kts 119°
2026-05-05 05:42 24.61473 88.19682 38855 ft 521 kts 119°
2026-05-05 05:43 24.58409 88.26988 38930 ft 530 kts 119°
2026-05-05 05:43 24.55294 88.34413 38956 ft 539 kts 118°
2026-05-05 05:44 24.52129 88.41955 38936 ft 545 kts 118°
2026-05-05 05:44 24.48947 88.49524 38922 ft 549 kts 118°
2026-05-05 05:45 24.45728 88.57166 38935 ft 551 kts 118°
2026-05-05 05:45 24.42684 88.64867 38935 ft 554 kts 114°
2026-05-05 05:46 24.40030 88.72820 38911 ft 556 kts 113°
2026-05-05 05:46 24.37415 88.80794 38925 ft 555 kts 113°
2026-05-05 05:47 24.34757 88.88768 38920 ft 554 kts 114°
2026-05-05 05:47 24.32087 88.96687 38918 ft 552 kts 114°
2026-05-05 05:48 24.29431 89.04539 38921 ft 551 kts 114°
2026-05-05 05:48 24.26768 89.12407 38919 ft 550 kts 114°
2026-05-05 05:49 24.24107 89.20263 38919 ft 549 kts 114°
2026-05-05 05:49 24.21444 89.28106 38922 ft 548 kts 114°
2026-05-05 05:50 24.18792 89.35902 38918 ft 547 kts 114°
2026-05-05 05:50 24.16123 89.43734 38920 ft 547 kts 114°
2026-05-05 05:51 24.13465 89.51521 38917 ft 547 kts 114°
2026-05-05 05:51 24.10779 89.59310 38920 ft 547 kts 114°
2026-05-05 05:52 24.07985 89.67004 38917 ft 547 kts 115°
2026-05-05 05:52 24.05620 89.73448 38917 ft 547 kts 115°
2026-05-05 05:53 24.02794 89.81204 38921 ft 547 kts 115°
2026-05-05 05:53 23.99997 89.88901 38913 ft 547 kts 115°
2026-05-05 05:54 23.97175 89.96650 38917 ft 547 kts 115°
2026-05-05 05:54 23.94440 90.04482 38914 ft 549 kts 112°
2026-05-05 05:55 23.91925 90.12317 38912 ft 549 kts 112°
2026-05-05 05:55 23.90664 90.16240 38849 ft 537 kts 112°
2026-05-05 05:55 23.89442 90.20006 38431 ft 513 kts 112°
2026-05-05 05:56 23.88251 90.23633 37377 ft 502 kts 113°
2026-05-05 05:56 23.87054 90.27239 35683 ft 507 kts 113°
2026-05-05 05:56 23.85853 90.30853 33991 ft 515 kts 114°
2026-05-05 05:56 23.84678 90.34547 32454 ft 513 kts 108°
2026-05-05 05:57 23.84199 90.38394 31225 ft 510 kts 90°
2026-05-05 05:57 23.84713 90.42183 30215 ft 499 kts 75°
2026-05-05 05:57 23.85951 90.45693 29067 ft 487 kts 61°
2026-05-05 05:57 23.87839 90.48662 28586 ft 476 kts 49°
2026-05-05 05:58 23.89986 90.51400 28090 ft 471 kts 48°
2026-05-05 05:58 23.92119 90.54092 27626 ft 466 kts 48°
2026-05-05 05:58 23.94234 90.56779 27127 ft 464 kts 48°
2026-05-05 05:58 23.96323 90.59463 26620 ft 461 kts 49°
2026-05-05 05:59 23.98386 90.62142 26131 ft 458 kts 49°
2026-05-05 05:59 24.00401 90.64774 25630 ft 456 kts 49°
2026-05-05 05:59 24.02434 90.67437 25138 ft 454 kts 49°
2026-05-05 05:59 24.04455 90.70083 24614 ft 452 kts 49°
2026-05-05 06:00 24.06466 90.72717 24125 ft 450 kts 49°
2026-05-05 06:00 24.08473 90.75345 23619 ft 448 kts 49°
2026-05-05 06:00 24.10530 90.77901 23045 ft 446 kts 45°
2026-05-05 06:00 24.12655 90.80358 22519 ft 442 kts 44°
2026-05-05 06:01 24.14758 90.82739 22012 ft 438 kts 44°
2026-05-05 06:01 24.16882 90.85160 21517 ft 434 kts 45°
2026-05-05 06:01 24.18940 90.87529 21035 ft 430 kts 45°
2026-05-05 06:01 24.20970 90.89923 20561 ft 427 kts 46°
2026-05-05 06:02 24.22927 90.92368 20075 ft 424 kts 47°
2026-05-05 06:02 24.24836 90.94812 19593 ft 421 kts 48°
2026-05-05 06:02 24.26727 90.97246 19114 ft 418 kts 47°
2026-05-05 06:02 24.28608 90.99659 18629 ft 415 kts 47°
2026-05-05 06:03 24.30485 91.02057 18145 ft 412 kts 47°
2026-05-05 06:03 24.32325 91.04398 17610 ft 409 kts 47°
2026-05-05 06:03 24.34173 91.06745 17115 ft 405 kts 47°
2026-05-05 06:03 24.36012 91.09077 16563 ft 402 kts 47°
2026-05-05 06:04 24.37847 91.11406 16033 ft 400 kts 47°
2026-05-05 06:04 24.39662 91.13709 15553 ft 397 kts 48°
2026-05-05 06:04 24.41444 91.15972 15094 ft 394 kts 48°
2026-05-05 06:04 24.43229 91.18241 14611 ft 391 kts 48°
2026-05-05 06:05 24.45007 91.20502 14148 ft 389 kts 48°
2026-05-05 06:05 24.46770 91.22745 13677 ft 387 kts 49°
2026-05-05 06:05 24.48527 91.24982 13175 ft 384 kts 49°
2026-05-05 06:05 24.50261 91.27191 12684 ft 381 kts 49°
2026-05-05 06:06 24.51969 91.29367 12225 ft 378 kts 49°
2026-05-05 06:06 24.53686 91.31556 11776 ft 375 kts 49°
2026-05-05 06:06 24.55384 91.33720 11302 ft 372 kts 49°
2026-05-05 06:06 24.57075 91.35878 10870 ft 369 kts 49°
2026-05-05 06:07 24.58723 91.37980 10556 ft 363 kts 49°
2026-05-05 06:07 24.60347 91.40053 10403 ft 350 kts 49°
2026-05-05 06:07 24.61875 91.42004 10216 ft 321 kts 49°
2026-05-05 06:07 24.63265 91.43780 10055 ft 294 kts 49°
2026-05-05 06:08 24.64563 91.45440 9979 ft 280 kts 49°
2026-05-05 06:08 24.65826 91.47054 9799 ft 278 kts 49°
2026-05-05 06:08 24.67098 91.48681 9509 ft 284 kts 49°
2026-05-05 06:08 24.68391 91.50335 9223 ft 291 kts 49°
2026-05-05 06:09 24.69721 91.52038 8879 ft 294 kts 49°
2026-05-05 06:09 24.71052 91.53744 8552 ft 293 kts 49°
2026-05-05 06:09 24.72386 91.55449 8238 ft 293 kts 49°
2026-05-05 06:09 24.73704 91.57136 8155 ft 286 kts 49°
2026-05-05 06:10 24.74961 91.58746 8159 ft 273 kts 49°
2026-05-05 06:10 24.76147 91.60268 8177 ft 255 kts 49°
2026-05-05 06:10 24.77296 91.61739 8054 ft 255 kts 49°
2026-05-05 06:10 24.78459 91.63230 7754 ft 258 kts 49°
2026-05-05 06:11 24.79632 91.64729 7431 ft 258 kts 49°
2026-05-05 06:11 24.80798 91.66225 7128 ft 256 kts 48°
2026-05-05 06:11 24.81945 91.67693 6842 ft 255 kts 48°
2026-05-05 06:11 24.83099 91.69171 6545 ft 253 kts 48°
2026-05-05 06:12 24.84374 91.70459 6209 ft 247 kts 27°
2026-05-05 06:12 24.86012 91.70912 5911 ft 242 kts 357°
2026-05-05 06:12 24.87643 91.70506 5635 ft 239 kts 337°
2026-05-05 06:12 24.89107 91.69723 5327 ft 234 kts 330°
2026-05-05 06:13 24.90567 91.68942 5060 ft 233 kts 337°
2026-05-05 06:13 24.92118 91.68379 4777 ft 233 kts 344°
2026-05-05 06:13 24.93706 91.68028 4486 ft 233 kts 351°
2026-05-05 06:13 24.95316 91.67853 4188 ft 231 kts 355°
2026-05-05 06:14 24.96899 91.67792 3910 ft 229 kts 360°
2026-05-05 06:14 24.98479 91.67911 3682 ft 228 kts
2026-05-05 06:14 25.00055 91.68235 3361 ft 230 kts 18°
2026-05-05 06:14 25.01356 91.69223 3113 ft 228 kts 52°
2026-05-05 06:15 25.01912 91.70820 2850 ft 223 kts 88°
2026-05-05 06:15 25.01661 91.72466 2719 ft 220 kts 106°
2026-05-05 06:15 25.01195 91.74057 2657 ft 215 kts 112°
2026-05-05 06:15 25.00642 91.75516 2554 ft 197 kts 115°
2026-05-05 06:16 25.00110 91.76851 2374 ft 183 kts 115°
2026-05-05 06:16 24.99626 91.78095 2087 ft 170 kts 115°
2026-05-05 06:16 24.99155 91.79322 2017 ft 176 kts 115°
2026-05-05 06:16 24.98657 91.80563 1988 ft 176 kts 115°
2026-05-05 06:17 24.98184 91.81847 1999 ft 184 kts 114°
2026-05-05 06:17 24.97688 91.83122 1990 ft 182 kts 114°
2026-05-05 06:17 24.97184 91.84429 1997 ft 195 kts 114°
2026-05-05 06:17 24.96624 91.85882 1997 ft 208 kts 114°
2026-05-05 06:18 24.96066 91.87337 2004 ft 210 kts 114°
2026-05-05 06:18 24.95454 91.88811 1975 ft 210 kts 117°
2026-05-05 06:18 24.94642 91.90089 1957 ft 200 kts 147°
2026-05-05 06:18 24.93299 91.90467 1958 ft 204 kts 187°
2026-05-05 06:19 24.92001 91.89846 2048 ft 216 kts 218°
2026-05-05 06:19 24.91112 91.88521 1994 ft 215 kts 250°
2026-05-05 06:19 24.91045 91.86885 1998 ft 220 kts 283°
2026-05-05 06:19 24.91598 91.85296 2005 ft 225 kts 294°
2026-05-05 06:20 24.92260 91.83752 2019 ft 230 kts 294°
2026-05-05 06:20 24.92957 91.82194 2010 ft 221 kts 295°
2026-05-05 06:20 24.93634 91.80679 2001 ft 220 kts 295°
2026-05-05 06:20 24.94298 91.79167 2010 ft 218 kts 294°
2026-05-05 06:21 24.94956 91.77647 1956 ft 219 kts 294°
2026-05-05 06:21 24.95599 91.76126 1998 ft 220 kts 294°
2026-05-05 06:21 24.96268 91.74569 2021 ft 228 kts 294°
2026-05-05 06:21 24.96939 91.72991 1941 ft 222 kts 294°
2026-05-05 06:22 24.97585 91.71500 1987 ft 218 kts 294°
2026-05-05 06:22 24.98240 91.69977 1984 ft 221 kts 293°
2026-05-05 06:22 24.98858 91.68428 1983 ft 221 kts 294°
2026-05-05 06:22 24.99479 91.66867 1982 ft 220 kts 290°
2026-05-05 06:23 25.00071 91.65286 2001 ft 225 kts 291°
2026-05-05 06:23 25.00705 91.63676 1989 ft 229 kts 294°
2026-05-05 06:23 25.01346 91.62103 1971 ft 218 kts 293°
2026-05-05 06:23 25.01936 91.60642 1966 ft 203 kts 292°
2026-05-05 06:24 25.02542 91.59315 1947 ft 189 kts 313°
2026-05-05 06:24 25.03830 91.58625 1990 ft 226 kts 354°
2026-05-05 06:24 25.05312 91.58951 1974 ft 212 kts 31°
2026-05-05 06:24 25.06227 91.60093 1988 ft 194 kts 70°
2026-05-05 06:25 25.06246 91.61481 1993 ft 183 kts 112°
2026-05-05 06:25 25.05640 91.62729 2015 ft 186 kts 119°
2026-05-05 06:25 25.05085 91.63978 1995 ft 181 kts 116°
2026-05-05 06:25 25.04577 91.65230 2018 ft 179 kts 114°
2026-05-05 06:26 25.04098 91.66498 2000 ft 177 kts 114°
2026-05-05 06:26 25.03581 91.67751 1980 ft 180 kts 116°
2026-05-05 06:26 25.03093 91.69020 2000 ft 179 kts 112°
2026-05-05 06:26 25.02620 91.70320 1971 ft 184 kts 114°
2026-05-05 06:27 25.02130 91.71623 1987 ft 187 kts 112°
2026-05-05 06:27 25.01062 91.74308 2008 ft 190 kts 114°
2026-05-05 06:27 25.00577 91.75637 1864 ft 186 kts 114°
2026-05-05 06:28 25.00089 91.76900 1677 ft 172 kts 115°
2026-05-05 06:28 24.99637 91.78067 1460 ft 165 kts 114°
2026-05-05 06:28 24.99190 91.79231 1253 ft 165 kts 115°
2026-05-05 06:28 24.98744 91.80366 985 ft 155 kts 115°
2026-05-05 06:29 24.98348 91.81416 832 ft 146 kts 114°
2026-05-05 06:29 24.97957 91.82435 615 ft 144 kts 114°
2026-05-05 06:29 24.97566 91.83454 403 ft 145 kts 114°
2026-05-05 06:29 24.97178 91.84464 221 ft 144 kts 113°
2026-05-05 06:30 24.96786 91.85484 59 ft 143 kts 115°
2026-05-05 06:30 24.96471 91.86293 55 ft 71 kts 113°
2026-05-05 06:30 24.96361 91.86577 60 ft 45 kts 113°
2026-05-05 06:30 24.96230 91.86914 60 ft 47 kts 112°
2026-05-05 06:31 24.96108 91.87237 58 ft 44 kts 113°
2026-05-05 06:31 24.95990 91.87545 60 ft 42 kts 113°
2026-05-05 06:31 24.95909 91.87786 58 ft 26 kts 92°
2026-05-05 06:31 24.95883 91.87965 59 ft 15 kts 137°
2026-05-05 06:32 24.95823 91.87949 56 ft 11 kts 249°
2026-05-05 06:32 24.95860 91.87837 57 ft 17 kts 302°
2026-05-05 06:32 24.95935 91.87683 56 ft 31 kts 294°
2026-05-05 06:32 24.96016 91.87464 56 ft 29 kts 294°
2026-05-05 06:33 24.95986 91.87353 57 ft 14 kts 195°
2026-05-05 06:33 24.95875 91.87308 56 ft 18 kts 203°
2026-05-05 06:33 24.95775 91.87236 61 ft 16 kts 249°
2026-05-05 06:33 24.95785 91.87184 58 ft 5 kts 291°
2026-05-05 06:34 24.95787 91.87179 60 ft 0 kts 293°